W4HSV Weather Reports


time (UTC)temp
F
wind
direction
speed
knots
gust
knots
rain 1hr
in
rain 24hr
in
rain mn
in
humidity
%
barometer
mb
20240613051959 69 340 2.6 4.3 0.00 0.00 0.00 79 1013.7
20240613051906 70 344 2.6 4.3 0.00 0.00 0.00 79 1013.7
20240613051841 69 335 2.6 4.3 0.00 0.00 0.00 79 1013.7
20240613051615 70 342 2.6 4.3 0.00 0.00 0.00 79 1013.7
20240613051504 70 327 2.6 4.3 0.00 0.00 0.00 79 1013.8
20240613051410 70 329 2.6 4.3 0.00 0.00 0.00 79 1013.7
20240613051302 70 341 2.6 4.3 0.00 0.00 0.00 79 1013.7
20240613051230 70 341 2.6 4.3 0.00 0.00 0.00 79 1013.7
20240613051115 70 336 2.6 4.3 0.00 0.00 0.00 79 1013.7
20240613051023 70 341 2.6 3.5 0.00 0.00 0.00 79 1013.7
20240613050908 70 342 2.6 3.5 0.00 0.00 0.00 79 1013.7
20240613050836 70 340 2.6 3.5 0.00 0.00 0.00 79 1013.8
20240613050702 70 316 1.7 3.5 0.00 0.00 0.00 79 1013.8
20240613050630 70 333 1.7 3.5 0.00 0.00 0.00 79 1013.7
20240613050520 70 321 1.7 3.5 0.00 0.00 0.00 79 1013.7
20240613050448 70 345 1.7 2.6 0.00 0.00 0.00 79 1013.8
20240613050358 70 331 1.7 2.6 0.00 0.00 0.00 79 1013.8
20240613050110 70 333 0.9 2.6 0.00 0.00 0.00 79 1013.7
20240613050017 70 319 0.9 2.6 0.00 0.00 0.00 79 1013.7
20240613045909 70 337 0.9 2.6 0.00 0.00 0.00 79 1013.7
20240613045837 70 348 0.9 2.6 0.00 0.00 0.00 79 1013.7
20240613045702 70 347 1.7 3.5 0.00 0.00 0.00 79 1013.7
20240613045608 70 336 0.9 3.5 0.00 0.00 0.00 79 1013.7
20240613045516 70 327 1.7 3.5 0.00 0.00 0.00 79 1013.7
20240613045403 70 344 1.7 3.5 0.00 0.00 0.00 79 1013.7
20240613045314 70 338 1.7 3.5 0.00 0.00 0.00 79 1013.7
20240613045201 70 346 0.9 3.5 0.00 0.00 0.00 79 1013.7
20240613045110 70 320 0.9 3.5 0.00 0.00 0.00 78 1013.8
20240613045015 70 331 0.9 3.5 0.00 0.00 0.00 78 1013.7
20240613044904 70 346 0.9 3.5 0.00 0.00 0.00 78 1013.8
20240613044839 70 355 0.9 3.5 0.00 0.00 0.00 78 1013.8
20240613044613 70 334 0.9 3.5 0.00 0.00 0.00 78 1013.7
20240613044501 70 360 1.7 3.5 0.00 0.00 0.00 78 1013.7
20240613044407 70 337 1.7 2.6 0.00 0.00 0.00 78 1013.7
20240613044259 70 360 1.7 2.6 0.00 0.00 0.00 78 1013.7
20240613044206 70 346 1.7 2.6 0.00 0.00 0.00 78 1013.7
20240613044112 70 333 0.9 2.6 0.00 0.00 0.00 78 1013.8
20240613043958 70 326 0.0 2.6 0.00 0.00 0.00 78 1013.7
20240613043907 70 335 0.0 2.6 0.00 0.00 0.00 78 1013.7
20240613043834 70 335 0.9 2.6 0.00 0.00 0.00 78 1013.8
20240613043704 70 335 0.9 2.6 0.00 0.00 0.00 78 1013.7
20240613043611 70 327 1.7 2.6 0.00 0.00 0.00 78 1013.7
20240613043459 70 344 1.7 2.6 0.00 0.00 0.00 78 1013.8
20240613043406 70 348 0.9 2.6 0.00 0.00 0.00 78 1013.7
20240613043337 70 322 0.9 2.6 0.00 0.00 0.00 78 1013.7
20240613043114 70 329 0.9 2.6 0.00 0.00 0.00 78 1013.8
20240613043000 70 327 0.9 2.6 0.00 0.00 0.00 78 1013.8
20240613042906 70 327 0.9 2.6 0.00 0.00 0.00 77 1013.8
20240613042812 70 325 0.9 2.6 0.00 0.00 0.00 77 1013.8
20240613042700 70 330 0.9 2.6 0.00 0.00 0.00 77 1013.8
20240613042612 70 328 0.0 2.6 0.00 0.00 0.00 77 1013.7
20240613042459 71 326 0.0 2.6 0.00 0.00 0.00 77 1013.8
20240613042407 71 332 0.9 2.6 0.00 0.00 0.00 77 1013.8
20240613042314 71 332 1.7 2.6 0.00 0.00 0.00 77 1013.8
20240613042200 71 331 0.9 2.6 0.00 0.00 0.00 77 1013.8
20240613042128 71 329 0.9 1.7 0.00 0.00 0.00 76 1013.9
20240613041959 71 336 0.9 1.7 0.00 0.00 0.00 76 1013.9
20240613041905 71 333 0.0 1.7 0.00 0.00 0.00 77 1013.9
20240613041834 71 5 0.0 1.7 0.00 0.00 0.00 77 1013.9
20240613041608 71 5 0.0 1.7 0.00 0.00 0.00 77 1014.0
20240613041459 71 14 0.0 1.7 0.00 0.00 0.00 77 1014.0
20240613041405 71 331 0.0 1.7 0.00 0.00 0.00 77 1014.0
20240613041312 71 331 0.9 1.7 0.00 0.00 0.00 77 1014.0
20240613041220 71 337 0.0 1.7 0.00 0.00 0.00 77 1014.0
20240613041105 71 5 0.0 0.9 0.00 0.00 0.00 77 1014.0
20240613041033 71 5 0.0 0.9 0.00 0.00 0.00 77 1014.0
20240613040859 71 5 0.0 0.0 0.00 0.00 0.00 77 1014.0
20240613040810 71 5 0.0 0.0 0.00 0.00 0.00 77 1014.0
20240613040658 71 5 0.0 0.0 0.00 0.00 0.00 77 1014.0
20240613040606 71 5 0.0 0.0 0.00 0.00 0.00 76 1014.0
20240613040514 71 5 0.0 0.0 0.00 0.00 0.00 76 1014.0
20240613040402 71 5 0.0 0.0 0.00 0.00 0.00 76 1014.0
20240613040337 71 5 0.0 0.0 0.00 0.00 0.00 75 1014.0
20240613040111 71 5 0.0 0.0 0.00 0.00 0.00 75 1014.0
20240613040039 71 5 0.0 0.0 0.00 0.00 0.00 75 1014.0
20240613035904 71 5 0.0 0.0 0.00 0.00 0.00 75 1014.0
20240613035831 71 5 0.0 0.0 0.00 0.00 0.00 75 1014.0
20240613035701 71 5 0.0 0.0 0.00 0.00 0.00 75 1014.1
20240613035629 71 5 0.0 0.0 0.00 0.00 0.00 75 1014.1
20240613035515 71 5 0.0 0.0 0.00 0.00 0.00 75 1014.1
20240613035402 71 5 0.0 0.0 0.00 0.00 0.00 75 1014.0
20240613035308 71 5 0.0 0.0 0.00 0.00 0.00 75 1014.0
20240613035235 71 5 0.0 0.0 0.00 0.00 0.00 75 1014.1
20240613035101 71 5 0.0 0.0 0.00 0.00 0.00 75 1014.1
20240613035013 71 5 0.0 0.0 0.00 0.00 0.00 75 1014.0
20240613034852 71 5 0.0 0.0 0.00 0.00 0.00 74 1014.1
20240613034625 72 5 0.0 0.0 0.00 0.00 0.00 74 1014.1
20240613034510 72 5 0.0 0.0 0.00 0.00 0.00 74 1014.1
20240613034401 72 5 0.0 0.0 0.00 0.00 0.00 75 1014.1
20240613034309 72 15 0.0 0.0 0.00 0.00 0.00 75 1014.0
20240613034216 72 15 0.0 0.0 0.00 0.00 0.00 74 1014.1
20240613034103 72 15 0.0 0.0 0.00 0.00 0.00 74 1014.1
20240613034031 72 15 0.0 0.0 0.00 0.00 0.00 74 1014.0
20240613033938 72 15 0.0 0.0 0.00 0.00 0.00 74 1014.1
20240613033808 72 42 0.0 0.0 0.00 0.00 0.00 74 1014.0
20240613033715 72 42 0.0 0.0 0.00 0.00 0.00 74 1014.1
20240613033602 72 42 0.0 0.0 0.00 0.00 0.00 74 1014.1
20240613033509 72 42 0.0 0.0 0.00 0.00 0.00 74 1014.1
20240613033411 72 42 0.0 0.0 0.00 0.00 0.00 74 1014.1
20240613033124 72 336 0.0 0.0 0.00 0.00 0.00 73 1014.0
20240613033010 72 336 0.0 0.0 0.00 0.00 0.00 74 1014.0
20240613032917 72 336 0.0 0.0 0.00 0.00 0.00 74 1014.0
20240613032804 72 336 0.0 0.0 0.00 0.00 0.00 74 1014.0
20240613032711 72 336 0.0 0.0 0.00 0.00 0.00 73 1014.0
20240613032602 72 336 0.0 0.0 0.00 0.00 0.00 73 1014.1
20240613032510 72 355 0.0 0.0 0.00 0.00 0.00 73 1014.1
20240613032417 72 355 0.0 0.9 0.00 0.00 0.00 73 1014.1
20240613032305 72 355 0.0 1.7 0.00 0.00 0.00 73 1014.0
20240613032231 72 355 0.0 1.7 0.00 0.00 0.00 73 1014.0
20240613032137 72 355 0.0 1.7 0.00 0.00 0.00 73 1014.1
20240613032008 72 355 0.0 1.7 0.00 0.00 0.00 73 1014.1
20240613031847 72 355 0.0 1.7 0.00 0.00 0.00 73 1014.0
20240613031559 73 355 0.0 1.7 0.00 0.00 0.00 73 1014.0
20240613031512 73 355 0.0 1.7 0.00 0.00 0.00 73 1014.0
20240613031400 73 355 0.0 0.9 0.00 0.00 0.00 72 1014.0
20240613031306 73 355 0.0 0.9 0.00 0.00 0.00 72 1014.1
20240613031234 73 355 0.0 0.9 0.00 0.00 0.00 72 1014.1
20240613031100 73 355 0.0 0.9 0.00 0.00 0.00 72 1014.1
20240613031027 73 355 0.0 0.9 0.00 0.00 0.00 72 1014.1
20240613030859 73 355 0.0 1.7 0.00 0.00 0.00 72 1014.1
20240613030807 73 355 0.0 1.7 0.00 0.00 0.00 72 1014.1
20240613030714 73 355 0.0 1.7 0.00 0.00 0.00 72 1014.1
20240613030603 73 355 0.0 1.7 0.00 0.00 0.00 72 1014.0
20240613030510 73 355 0.0 1.7 0.00 0.00 0.00 72 1014.0
20240613030351 73 355 0.0 2.6 0.00 0.00 0.00 72 1014.0
20240613030104 73 355 0.0 2.6 0.00 0.00 0.00 71 1014.0
20240613030011 73 355 0.0 2.6 0.00 0.00 0.00 71 1014.1
20240613025859 73 355 0.9 2.6 0.00 0.00 0.00 71 1014.1
20240613025826 73 355 0.9 2.6 0.00 0.00 0.00 71 1014.1
20240613025715 73 355 1.7 2.6 0.00 0.00 0.00 71 1014.1
20240613025604 74 355 0.9 2.6 0.00 0.00 0.00 71 1014.1
20240613025512 74 355 0.9 1.7 0.00 0.00 0.00 71 1014.1
20240613025358 74 336 0.0 0.9 0.00 0.00 0.00 71 1014.1
20240613025306 74 336 0.0 0.9 0.00 0.00 0.00 71 1014.1
20240613025216 74 294 0.0 0.9 0.00 0.00 0.00 71 1014.1
20240613025103 74 294 0.0 0.9 0.00 0.00 0.00 70 1014.2
20240613025031 74 294 0.0 1.7 0.00 0.00 0.00 70 1014.2
20240613024959 74 294 0.0 1.7 0.00 0.00 0.00 70 1014.2
20240613024908 74 294 0.0 1.7 0.00 0.00 0.00 70 1014.2
20240613024604 74 294 0.0 1.7 0.00 0.00 0.00 70 1014.2
20240613024512 74 294 0.0 1.7 0.00 0.00 0.00 71 1014.3
20240613024359 74 284 0.0 1.7 0.00 0.00 0.00 70 1014.2
20240613024307 74 283 0.0 1.7 0.00 0.00 0.00 70 1014.2
20240613024214 74 288 0.9 1.7 0.00 0.00 0.00 70 1014.2
20240613024101 74 299 0.9 0.9 0.00 0.00 0.00 70 1014.2
20240613024011 74 289 0.0 0.9 0.00 0.00 0.00 70 1014.2
20240613023900 74 287 0.0 0.9 0.00 0.00 0.00 70 1014.2
20240613023808 74 293 0.0 0.9 0.00 0.00 0.00 70 1014.3
20240613023714 74 294 0.0 0.9 0.00 0.00 0.00 70 1014.2
20240613023602 74 271 0.0 0.9 0.00 0.00 0.00 70 1014.2
20240613023514 74 268 0.0 0.9 0.00 0.00 0.00 70 1014.2
20240613023442 75 267 0.0 0.9 0.00 0.00 0.00 70 1014.1
20240613023350 74 261 0.0 0.9 0.00 0.00 0.00 69 1014.1
20240613023102 75 264 0.0 1.7 0.00 0.00 0.00 69 1014.1
20240613023009 75 264 0.0 1.7 0.00 0.00 0.00 69 1014.0
20240613022900 75 264 0.0 1.7 0.00 0.00 0.00 69 1014.1
20240613022827 75 264 0.0 1.7 0.00 0.00 0.00 69 1014.0
20240613022713 75 264 0.0 1.7 0.00 0.00 0.00 69 1014.0
20240613022600 75 264 0.0 1.7 0.00 0.00 0.00 69 1014.1
20240613022508 75 264 0.0 1.7 0.00 0.00 0.00 69 1014.0
20240613022415 75 264 0.9 1.7 0.00 0.00 0.00 69 1014.0
20240613022305 75 263 0.9 1.7 0.00 0.00 0.00 68 1014.0
20240613022216 75 263 0.9 1.7 0.00 0.00 0.00 68 1014.0
20240613022103 75 360 0.0 1.7 0.00 0.00 0.00 68 1014.1
20240613022009 75 360 0.9 1.7 0.00 0.00 0.00 68 1014.1
20240613021850 75 360 0.9 1.7 0.00 0.00 0.00 68 1014.0
20240613021604 75 360 0.9 1.7 0.00 0.00 0.00 68 1014.0
20240613021532 75 360 0.0 0.9 0.00 0.00 0.00 68 1014.0
20240613021418 75 360 0.0 0.9 0.00 0.00 0.00 67 1014.1
20240613021305 75 360 0.0 0.9 0.00 0.00 0.00 67 1014.0
20240613021212 76 360 0.9 0.9 0.00 0.00 0.00 67 1014.0
20240613021104 76 360 0.0 0.9 0.00 0.00 0.00 67 1014.0
20240613021011 76 360 0.0 0.9 0.00 0.00 0.00 66 1014.0
20240613020917 76 360 0.0 0.9 0.00 0.00 0.00 66 1014.0
20240613020803 76 360 0.0 1.7 0.00 0.00 0.00 66 1014.0
20240613020711 76 360 0.0 1.7 0.00 0.00 0.00 66 1014.0
20240613020603 76 360 0.0 1.7 0.00 0.00 0.00 66 1014.0
20240613020530 76 360 0.9 1.7 0.00 0.00 0.00 66 1014.0
20240613020348 76 360 0.0 1.7 0.00 0.00 0.00 65 1014.0
20240613020101 76 360 0.0 1.7 0.00 0.00 0.00 65 1014.0
20240613020013 76 360 0.9 2.6 0.00 0.00 0.00 65 1014.0
20240613015858 76 360 0.9 2.6 0.00 0.00 0.00 65 1014.0
20240613015807 76 360 0.9 2.6 0.00 0.00 0.00 65 1014.0
20240613015715 76 360 1.7 2.6 0.00 0.00 0.00 65 1014.0
20240613015602 77 360 1.7 2.6 0.00 0.00 0.00 64 1014.0
20240613015509 77 360 1.7 2.6 0.00 0.00 0.00 64 1013.9
20240613015401 77 5 1.7 2.6 0.00 0.00 0.00 64 1013.9
20240613015327 77 5 1.7 2.6 0.00 0.00 0.00 64 1013.9
20240613015213 77 5 1.7 2.6 0.00 0.00 0.00 64 1013.9
20240613015059 77 5 1.7 2.6 0.00 0.00 0.00 63 1013.9
20240613015008 77 5 1.7 2.6 0.00 0.00 0.00 63 1014.0
20240613014915 77 355 1.7 2.6 0.00 0.00 0.00 63 1013.9
20240613014850 77 5 1.7 2.6 0.00 0.00 0.00 63 1013.9
20240613014603 77 360 1.7 2.6 0.00 0.00 0.00 63 1013.9
20240613014511 77 360 0.9 2.6 0.00 0.00 0.00 63 1014.0
20240613014358 77 360 1.7 2.6 0.00 0.00 0.00 63 1014.0
20240613014309 77 360 1.7 2.6 0.00 0.00 0.00 63 1014.0
20240613014217 77 360 1.7 4.3 0.00 0.00 0.00 63 1013.9
20240613014103 78 5 1.7 4.3 0.00 0.00 0.00 62 1013.9
20240613014011 78 5 1.7 4.3 0.00 0.00 0.00 62 1013.9
20240613013859 78 5 1.7 4.3 0.00 0.00 0.00 62 1013.8
20240613013807 78 5 1.7 4.3 0.00 0.00 0.00 62 1013.9
20240613013718 78 5 1.7 4.3 0.00 0.00 0.00 62 1013.9
20240613013604 78 5 1.7 4.3 0.00 0.00 0.00 62 1013.9
20240613013511 78 5 1.7 4.3 0.00 0.00 0.00 62 1013.9
20240613013439 78 11 1.7 2.6 0.00 0.00 0.00 61 1013.9
20240613013347 78 11 1.7 2.6 0.00 0.00 0.00 61 1013.9
20240613013106 78 9 1.7 2.6 0.00 0.00 0.00 61 1013.9
20240613013012 78 15 1.7 2.6 0.00 0.00 0.00 61 1013.9
20240613012900 78 5 1.7 3.5 0.00 0.00 0.00 60 1013.9
20240613012807 78 355 1.7 3.5 0.00 0.00 0.00 60 1013.9
20240613012733 78 5 1.7 3.5 0.00 0.00 0.00 60 1013.8
20240613012600 79 360 1.7 3.5 0.00 0.00 0.00 60 1013.9
20240613012530 79 360 1.7 3.5 0.00 0.00 0.00 59 1013.8
20240613012416 79 360 1.7 3.5 0.00 0.00 0.00 59 1013.9
20240613012306 79 5 1.7 4.3 0.00 0.00 0.00 59 1013.9
20240613012209 79 5 1.7 4.3 0.00 0.00 0.00 59 1013.9
20240613012115 79 360 1.7 4.3 0.00 0.00 0.00 59 1013.8
20240613012004 79 5 1.7 4.3 0.00 0.00 0.00 58 1013.8
20240613011936 79 5 1.7 4.3 0.00 0.00 0.00 58 1013.8
20240613011908 79 10 2.6 4.3 0.00 0.00 0.00 58 1013.8
20240613011559 79 5 2.6 5.2 0.00 0.00 0.00 57 1013.8
20240613011507 79 346 2.6 5.2 0.00 0.00 0.00 57 1013.8
20240613011400 80 5 2.6 5.2 0.00 0.00 0.00 58 1013.8
20240613011307 80 355 1.7 5.2 0.00 0.00 0.00 57 1013.8
20240613011234 80 343 2.6 5.2 0.00 0.00 0.00 57 1013.8
20240613011120 80 338 2.6 5.2 0.00 0.00 0.00 57 1013.8
20240613011005 80 346 2.6 5.2 0.00 0.00 0.00 57 1013.8
20240613010914 80 326 3.5 5.2 0.00 0.00 0.00 57 1013.8
20240613010802 80 344 2.6 5.2 0.00 0.00 0.00 57 1013.8
20240613010714 80 332 1.7 4.3 0.00 0.00 0.00 57 1013.8
20240613010601 80 322 1.7 3.5 0.00 0.00 0.00 56 1013.8
20240613010509 80 340 2.6 3.5 0.00 0.00 0.00 56 1013.8
20240613010417 80 360 2.6 3.5 0.00 0.00 0.00 56 1013.8
20240613010351 80 342 2.6 3.5 0.00 0.00 0.00 56 1013.8
20240613010103 81 347 1.7 3.5 0.00 0.00 0.00 55 1013.8
20240613010010 81 348 1.7 3.5 0.00 0.00 0.00 55 1013.8
20240613005917 81 336 0.9 3.5 0.00 0.00 0.00 55 1013.9
20240613005804 81 330 0.9 3.5 0.00 0.00 0.00 55 1013.9
20240613005712 81 328 0.9 3.5 0.00 0.00 0.00 55 1013.9
20240613005602 81 355 0.9 3.5 0.00 0.00 0.00 55 1013.9
20240613005529 81 342 1.7 3.5 0.00 0.00 0.00 55 1014.0
20240613005414 81 331 1.7 4.3 0.00 0.00 0.00 55 1013.9
20240613005305 81 355 2.6 4.3 0.00 0.00 0.00 55 1013.9
20240613005211 81 340 2.6 4.3 0.00 0.00 0.00 54 1013.9
20240613005101 81 355 2.6 4.3 0.00 0.00 0.00 54 1013.9
20240613005010 81 355 1.7 4.3 0.00 0.00 0.00 54 1013.9
20240613004917 82 336 1.7 4.3 0.00 0.00 0.00 54 1013.9
20240613004848 82 351 1.7 4.3 0.00 0.00 0.00 54 1013.9
20240613004600 82 313 2.6 4.3 0.00 0.00 0.00 54 1013.9
20240613004512 82 348 2.6 4.3 0.00 0.00 0.00 53 1013.9
20240613004359 82 360 2.6 3.5 0.00 0.00 0.00 53 1013.9
20240613004306 82 355 2.6 3.5 0.00 0.00 0.00 53 1013.9
20240613004213 82 347 1.7 2.6 0.00 0.00 0.00 53 1013.9
20240613004120 82 335 1.7 3.5 0.00 0.00 0.00 53 1013.9
20240613004026 82 355 1.7 3.5 0.00 0.00 0.00 53 1013.9
20240613003916 82 339 1.7 3.5 0.00 0.00 0.00 53 1013.9
20240613003803 83 335 1.7 3.5 0.00 0.00 0.00 52 1013.9
20240613003711 83 355 1.7 3.5 0.00 0.00 0.00 52 1013.8
20240613003618 83 349 1.7 3.5 0.00 0.00 0.00 52 1013.9
20240613003504 83 360 1.7 4.3 0.00 0.00 0.00 52 1013.9
20240613003432 83 355 1.7 4.3 0.00 0.00 0.00 52 1014.0
20240613003346 83 343 2.6 4.3 0.00 0.00 0.00 51 1014.0
20240613003059 83 355 2.6 4.3 0.00 0.00 0.00 51 1013.9
20240613003006 83 348 2.6 4.3 0.00 0.00 0.00 51 1013.9
20240613002914 83 309 2.6 4.3 0.00 0.00 0.00 51 1013.9
20240613002805 83 336 2.6 4.3 0.00 0.00 0.00 51 1013.8
20240613002713 83 321 3.5 4.3 0.00 0.00 0.00 50 1013.8
20240613002601 84 333 2.6 4.3 0.00 0.00 0.00 50 1013.8
20240613002508 84 300 1.7 3.5 0.00 0.00 0.00 50 1013.8
20240613002416 84 347 1.7 3.5 0.00 0.00 0.00 50 1013.8
20240613002305 84 336 2.6 3.5 0.00 0.00 0.00 50 1013.8
20240613002213 84 348 1.7 3.5 0.00 0.00 0.00 50 1013.8
20240613002101 84 317 1.7 3.5 0.00 0.00 0.00 50 1013.7
20240613002007 84 271 1.7 3.5 0.00 0.00 0.00 49 1013.7
20240613001914 84 278 1.7 3.5 0.00 0.00 0.00 49 1013.8
20240613001848 84 264 1.7 3.5 0.00 0.00 0.00 49 1013.8
20240613001601 84 273 0.9 3.5 0.00 0.00 0.00 49 1013.8
20240613001508 84 282 0.9 3.5 0.00 0.00 0.00 49 1013.8
20240613001435 84 239 0.9 3.5 0.00 0.00 0.00 50 1013.8
20240613001302 84 200 1.7 3.5 0.00 0.00 0.00 49 1013.8
20240613001209 84 261 1.7 3.5 0.00 0.00 0.00 49 1013.8
20240613001059 84 271 2.6 3.5 0.00 0.00 0.00 49 1013.8
20240613001007 84 277 2.6 3.5 0.00 0.00 0.00 49 1013.9
20240613000913 84 281 2.6 3.5 0.00 0.00 0.00 48 1013.9
20240613000800 84 286 2.6 3.5 0.00 0.00 0.00 49 1013.9
20240613000709 84 250 1.7 3.5 0.00 0.00 0.00 49 1013.8
20240613000616 84 265 0.9 3.5 0.00 0.00 0.00 49 1013.8
20240613000506 84 197 0.9 7.0 0.00 0.00 0.00 48 1013.9
20240613000417 84 197 1.7 7.8 0.00 0.00 0.00 47 1013.9
20240613000343 84 196 1.7 7.8 0.00 0.00 0.00 48 1013.9
20240613000117 84 198 0.9 7.8 0.00 0.00 0.00 48 1013.7
20240613000003 84 182 0.9 7.8 0.00 0.00 0.00 47 1013.8
20240612235914 85 186 1.7 7.8 0.00 0.00 0.00 47 1013.8
20240612235800 85 193 4.3 7.8 0.00 0.00 0.00 47 1013.7
20240612235726 85 188 4.3 7.8 0.00 0.00 0.00 46 1013.7
20240612235611 85 178 4.3 7.8 0.00 0.00 0.00 47 1013.7
20240612235538 85 194 2.6 5.2 0.00 0.00 0.00 47 1013.7
20240612235425 85 213 1.7 5.2 0.00 0.00 0.00 47 1013.7
20240612235312 85 188 1.7 5.2 0.00 0.00 0.00 47 1013.7
20240612235204 85 180 0.9 5.2 0.00 0.00 0.00 46 1013.7
20240612235112 85 164 1.7 5.2 0.00 0.00 0.00 46 1013.8
20240612234959 85 211 2.6 5.2 0.00 0.00 0.00 46 1013.7
20240612234905 85 234 2.6 5.2 0.00 0.00 0.00 46 1013.7
20240612234841 85 214 2.6 5.2 0.00 0.00 0.00 46 1013.7
20240612234634 85 206 2.6 5.2 0.00 0.00 0.00 46 1013.7
20240612234459 85 183 2.6 5.2 0.00 0.00 0.00 46 1013.7
20240612234407 85 230 2.6 5.2 0.00 0.00 0.00 46 1013.7
20240612234335 86 190 2.6 5.2 0.00 0.00 0.00 46 1013.7
20240612234201 86 248 2.6 5.2 0.00 0.00 0.00 46 1013.7
20240612234112 86 199 2.6 7.0 0.00 0.00 0.00 45 1013.7
20240612234000 86 232 3.5 7.0 0.00 0.00 0.00 45 1013.7
20240612233907 86 227 2.6 7.0 0.00 0.00 0.00 46 1013.6
20240612233814 86 209 1.7 7.0 0.00 0.00 0.00 46 1013.6
20240612233702 86 222 1.7 7.0 0.00 0.00 0.00 46 1013.6
20240612233609 86 233 2.6 7.0 0.00 0.00 0.00 46 1013.7
20240612233517 86 209 3.5 7.0 0.00 0.00 0.00 46 1013.7
20240612233425 86 205 2.6 7.8 0.00 0.00 0.00 46 1013.7
20240612233356 86 236 2.6 7.8 0.00 0.00 0.00 46 1013.7
20240612233128 86 248 2.6 7.8 0.00 0.00 0.00 46 1013.6
20240612233016 86 186 3.5 7.8 0.00 0.00 0.00 45 1013.5
20240612232923 86 228 3.5 7.8 0.00 0.00 0.00 45 1013.5
20240612232813 86 265 4.3 7.8 0.00 0.00 0.00 45 1013.5
20240612232701 86 178 5.2 7.8 0.00 0.00 0.00 45 1013.5
20240612232607 86 225 6.1 7.8 0.00 0.00 0.00 44 1013.5
20240612232515 86 213 5.2 7.8 0.00 0.00 0.00 45 1013.5
20240612232403 86 210 5.2 7.8 0.00 0.00 0.00 44 1013.6
20240612232314 87 209 4.3 6.1 0.00 0.00 0.00 44 1013.5
20240612232203 87 186 3.5 6.1 0.00 0.00 0.00 44 1013.6
20240612232109 87 169 3.5 7.0 0.00 0.00 0.00 43 1013.5
20240612232017 87 203 3.5 6.1 0.00 0.00 0.00 44 1013.5
20240612231945 87 158 3.5 5.2 0.00 0.00 0.00 44 1013.5
20240612231858 87 184 1.7 6.1 0.00 0.00 0.00 42 1013.5
20240612231610 87 117 0.0 4.3 0.00 0.00 0.00 42 1013.5
20240612231539 87 281 0.9 6.1 0.00 0.00 0.00 42 1013.4
20240612231405 87 281 0.9 6.1 0.00 0.00 0.00 42 1013.5
20240612231312 87 277 1.7 6.1 0.00 0.00 0.00 42 1013.5
20240612231239 87 292 1.7 6.1 0.00 0.00 0.00 41 1013.5
20240612231103 87 240 1.7 6.1 0.00 0.00 0.00 41 1013.6
20240612231014 87 295 1.7 6.1 0.00 0.00 0.00 41 1013.5
20240612230902 87 259 1.7 6.1 0.00 0.00 0.00 42 1013.5
20240612230809 87 218 2.6 6.1 0.00 0.00 0.00 43 1013.5
20240612230715 87 277 1.7 6.1 0.00 0.00 0.00 43 1013.5
20240612230602 88 180 0.9 5.2 0.00 0.00 0.00 43 1013.5
20240612230513 88 272 1.7 5.2 0.00 0.00 0.00 43 1013.5
20240612230401 88 310 2.6 5.2 0.00 0.00 0.00 42 1013.5
20240612230332 88 284 2.6 5.2 0.00 0.00 0.00 42 1013.5
20240612230107 88 278 1.7 5.2 0.00 0.00 0.00 43 1013.5
20240612230014 88 291 1.7 5.2 0.00 0.00 0.00 43 1013.5
20240612225905 88 173 2.6 5.2 0.00 0.00 0.00 43 1013.5
20240612225813 88 202 2.6 5.2 0.00 0.00 0.00 41 1013.4
20240612225701 88 192 2.6 5.2 0.00 0.00 0.00 41 1013.5
20240612225608 88 181 1.7 5.2 0.00 0.00 0.00 41 1013.5
20240612225516 88 241 1.7 5.2 0.00 0.00 0.00 42 1013.5
20240612225408 88 268 1.7 5.2 0.00 0.00 0.00 41 1013.4
20240612225315 88 257 2.6 5.2 0.00 0.00 0.00 41 1013.4
20240612225202 89 303 2.6 5.2 0.00 0.00 0.00 43 1013.5
20240612225109 89 313 2.6 5.2 0.00 0.00 0.00 43 1013.5
20240612225016 89 315 2.6 4.3 0.00 0.00 0.00 42 1013.5
20240612224907 89 296 1.7 5.2 0.00 0.00 0.00 44 1013.5
20240612224837 89 275 0.9 5.2 0.00 0.00 0.00 43 1013.5
20240612224612 89 327 0.0 4.3 0.00 0.00 0.00 42 1013.5
20240612224500 88 44 0.0 7.0 0.00 0.00 0.00 43 1013.5
20240612224407 88 41 0.9 7.0 0.00 0.00 0.00 43 1013.4
20240612224259 88 19 0.9 7.0 0.00 0.00 0.00 42 1013.5
20240612224206 88 360 1.7 7.0 0.00 0.00 0.00 43 1013.4
20240612224112 88 350 1.7 7.0 0.00 0.00 0.00 43 1013.4
20240612224000 88 26 1.7 7.0 0.00 0.00 0.00 43 1013.5
20240612223908 89 23 2.6 7.0 0.00 0.00 0.00 43 1013.4
20240612223801 89 355 3.5 7.0 0.00 0.00 0.00 43 1013.4
20240612223707 89 346 3.5 7.0 0.00 0.00 0.00 43 1013.3
20240612223615 89 336 3.5 4.3 0.00 0.00 0.00 43 1013.4
20240612223502 89 318 3.5 4.3 0.00 0.00 0.00 43 1013.4
20240612223407 89 323 2.6 4.3 0.00 0.00 0.00 43 1013.5
20240612223343 88 331 1.7 4.3 0.00 0.00 0.00 43 1013.5
20240612223116 88 346 0.9 4.3 0.00 0.00 0.00 43 1013.5
20240612223002 88 336 1.7 4.3 0.00 0.00 0.00 43 1013.4
20240612222909 88 342 1.7 4.3 0.00 0.00 0.00 44 1013.4
20240612222816 88 305 1.7 4.3 0.00 0.00 0.00 44 1013.5
20240612222708 88 345 2.6 5.2 0.00 0.00 0.00 44 1013.5
20240612222616 88 10 2.6 7.8 0.00 0.00 0.00 44 1013.5
20240612222502 88 325 2.6 7.8 0.00 0.00 0.00 45 1013.5
20240612222409 88 345 2.6 7.8 0.00 0.00 0.00 44 1013.5
20240612222317 88 5 1.7 7.8 0.00 0.00 0.00 44 1013.5
20240612222224 88 323 2.6 7.8 0.00 0.00 0.00 44 1013.5
20240612222115 88 325 2.6 7.8 0.00 0.00 0.00 44 1013.5
20240612222002 88 319 3.5 7.8 0.00 0.00 0.00 45 1013.5
20240612221930 88 313 3.5 7.8 0.00 0.00 0.00 45 1013.4
20240612221842 88 317 3.5 7.8 0.00 0.00 0.00 45 1013.4
20240612221600 88 355 4.3 7.8 0.00 0.00 0.00 45 1013.5
20240612221507 88 360 4.3 7.8 0.00 0.00 0.00 46 1013.5
20240612221434 88 305 3.5 5.2 0.00 0.00 0.00 45 1013.4
20240612221300 88 319 1.7 7.8 0.00 0.00 0.00 46 1013.5
20240612221207 88 326 0.9 7.8 0.00 0.00 0.00 44 1013.4
20240612221133 88 329 1.7 7.8 0.00 0.00 0.00 44 1013.5
20240612221000 88 327 2.6 7.8 0.00 0.00 0.00 45 1013.5
20240612220910 88 5 2.6 7.8 0.00 0.00 0.00 45 1013.5
20240612220817 88 355 2.6 7.8 0.00 0.00 0.00 44 1013.5
20240612220704 88 11 4.3 7.8 0.00 0.00 0.00 46 1013.5
20240612220611 88 360 4.3 7.8 0.00 0.00 0.00 45 1013.5
20240612220518 88 344 4.3 7.8 0.00 0.00 0.00 45 1013.5
20240612220409 88 333 1.7 5.2 0.00 0.00 0.00 44 1013.6
20240612220340 88 355 1.7 7.0 0.00 0.00 0.00 44 1013.6
20240612220113 88 209 1.7 7.8 0.00 0.00 0.00 44 1013.5
20240612215959 88 165 2.6 7.8 0.00 0.00 0.00 43 1013.6
20240612215908 88 196 3.5 7.8 0.00 0.00 0.00 43 1013.6
20240612215839 88 202 2.6 7.8 0.00 0.00 0.00 44 1013.6
20240612215704 88 283 2.6 7.8 0.00 0.00 0.00 44 1013.5
20240612215612 88 277 3.5 7.8 0.00 0.00 0.00 44 1013.7
20240612215459 88 262 4.3 7.8 0.00 0.00 0.00 43 1013.7
20240612215407 88 298 5.2 7.8 0.00 0.00 0.00 44 1013.7
20240612215314 88 311 5.2 7.8 0.00 0.00 0.00 44 1013.7
20240612215203 88 295 3.5 7.8 0.00 0.00 0.00 44 1013.7
20240612215112 88 323 1.7 7.0 0.00 0.00 0.00 45 1013.7
20240612215018 88 331 1.7 7.0 0.00 0.00 0.00 45 1013.7
20240612214925 88 292 2.6 7.0 0.00 0.00 0.00 44 1013.7
20240612214839 88 315 2.6 7.0 0.00 0.00 0.00 45 1013.7
20240612214613 88 290 3.5 7.0 0.00 0.00 0.00 45 1013.7
20240612214500 88 216 3.5 7.0 0.00 0.00 0.00 44 1013.7
20240612214409 88 314 2.6 7.0 0.00 0.00 0.00 44 1013.7
20240612214316 88 234 0.9 7.0 0.00 0.00 0.00 43 1013.7
20240612214223 89 28 0.0 5.2 0.00 0.00 0.00 42 1013.8
20240612214113 89 28 0.0 5.2 0.00 0.00 0.00 41 1013.7
20240612214001 89 28 0.9 5.2 0.00 0.00 0.00 44 1013.8
20240612213909 89 28 1.7 5.2 0.00 0.00 0.00 45 1013.7
20240612213815 89 22 2.6 5.2 0.00 0.00 0.00 45 1013.7
20240612213700 89 22 3.5 5.2 0.00 0.00 0.00 44 1013.7
20240612213608 89 43 3.5 5.2 0.00 0.00 0.00 44 1013.8
20240612213520 89 338 3.5 5.2 0.00 0.00 0.00 45 1013.7
20240612213427 89 339 3.5 5.2 0.00 0.00 0.00 45 1013.7
20240612213357 89 5 3.5 7.0 0.00 0.00 0.00 44 1013.7
20240612213108 89 331 3.5 7.0 0.00 0.00 0.00 44 1013.7
20240612213015 89 12 3.5 7.0 0.00 0.00 0.00 44 1013.7
20240612212907 89 355 3.5 7.8 0.00 0.00 0.00 45 1013.7
20240612212814 89 342 3.5 7.8 0.00 0.00 0.00 45 1013.7
20240612212722 88 307 3.5 7.8 0.00 0.00 0.00 45 1013.7
20240612212608 88 302 3.5 10.4 0.00 0.00 0.00 45 1013.8
20240612212515 88 360 2.6 10.4 0.00 0.00 0.00 45 1013.8
20240612212422 88 360 1.7 10.4 0.00 0.00 0.00 45 1013.7
20240612212308 88 336 2.6 10.4 0.00 0.00 0.00 45 1013.8
20240612212220 88 11 3.5 10.4 0.00 0.00 0.00 45 1013.8
20240612212107 88 46 4.3 10.4 0.00 0.00 0.00 45 1013.8
20240612212016 88 32 4.3 10.4 0.00 0.00 0.00 46 1013.8
20240612211902 88 322 3.5 7.8 0.00 0.00 0.00 45 1013.8
20240612211836 88 336 3.5 7.8 0.00 0.00 0.00 45 1013.8
20240612211611 88 22 2.6 7.8 0.00 0.00 0.00 45 1013.9
20240612211459 89 38 1.7 7.8 0.00 0.00 0.00 45 1013.8
20240612211427 89 28 1.7 7.8 0.00 0.00 0.00 45 1013.8
20240612211314 89 26 2.6 7.8 0.00 0.00 0.00 43 1013.9
20240612211201 88 21 3.5 7.8 0.00 0.00 0.00 45 1013.9
20240612211113 88 47 4.3 7.8 0.00 0.00 0.00 45 1013.7
20240612211002 88 28 5.2 7.8 0.00 0.00 0.00 45 1013.8
20240612210908 88 28 4.3 7.8 0.00 0.00 0.00 45 1013.8
20240612210814 88 336 4.3 9.6 0.00 0.00 0.00 45 1013.8
20240612210702 88 335 3.5 9.6 0.00 0.00 0.00 44 1013.7
20240612210610 88 324 3.5 9.6 0.00 0.00 0.00 44 1013.8
20240612210500 88 340 3.5 9.6 0.00 0.00 0.00 44 1013.8
20240612210408 88 262 4.3 9.6 0.00 0.00 0.00 45 1013.8
20240612210339 88 355 4.3 9.6 0.00 0.00 0.00 44 1013.8
20240612210112 88 319 5.2 9.6 0.00 0.00 0.00 45 1013.7
20240612210025 88 331 4.3 9.6 0.00 0.00 0.00 44 1013.7
20240612205910 88 343 3.5 7.8 0.00 0.00 0.00 44 1013.8
20240612205838 88 326 3.5 7.8 0.00 0.00 0.00 46 1013.8
20240612205704 88 320 4.3 7.8 0.00 0.00 0.00 45 1013.8
20240612205611 88 26 5.2 7.8 0.00 0.00 0.00 47 1013.8
20240612205459 88 360 4.3 8.7 0.00 0.00 0.00 46 1013.8
20240612205409 88 360 2.6 8.7 0.00 0.00 0.00 45 1013.8
20240612205317 88 360 2.6 8.7 0.00 0.00 0.00 44 1013.8
20240612205224 88 5 3.5 8.7 0.00 0.00 0.00 43 1013.8
20240612205109 88 298 4.3 8.7 0.00 0.00 0.00 45 1013.8
20240612205016 88 333 3.5 8.7 0.00 0.00 0.00 46 1013.7
20240612204904 88 312 5.2 9.6 0.00 0.00 0.00 47 1013.8
20240612204840 88 301 6.1 9.6 0.00 0.00 0.00 47 1013.8
20240612204518 88 355 3.5 9.6 0.00 0.00 0.00 45 1013.8
20240612204405 88 340 4.3 9.6 0.00 0.00 0.00 47 1013.9
20240612204334 88 355 4.3 9.6 0.00 0.00 0.00 47 1013.8
20240612204205 88 355 3.5 9.6 0.00 0.00 0.00 46 1013.9
20240612204134 88 343 2.6 9.6 0.00 0.00 0.00 46 1013.9
20240612203959 88 360 4.3 9.6 0.00 0.00 0.00 46 1013.9
20240612203907 88 355 5.2 9.6 0.00 0.00 0.00 45 1013.9
20240612203815 88 5 5.2 9.6 0.00 0.00 0.00 46 1013.9
20240612203703 88 360 3.5 8.7 0.00 0.00 0.00 45 1014.0
20240612203609 88 46 4.3 8.7 0.00 0.00 0.00 45 1013.9
20240612203500 88 313 5.2 8.7 0.00 0.00 0.00 45 1013.9
20240612203406 88 321 5.2 8.7 0.00 0.00 0.00 46 1013.9
20240612203337 88 327 5.2 8.7 0.00 0.00 0.00 46 1013.9
20240612203110 88 75 3.5 8.7 0.00 0.00 0.00 47 1014.0
20240612203002 87 55 4.3 8.7 0.00 0.00 0.00 46 1014.0
20240612202910 87 30 4.3 8.7 0.00 0.00 0.00 48 1014.1
20240612202816 87 18 4.3 8.7 0.00 0.00 0.00 47 1014.1
20240612202703 87 5 6.1 8.7 0.00 0.00 0.00 48 1014.1
20240612202611 87 5 5.2 8.7 0.00 0.00 0.00 47 1014.1
20240612202502 87 338 4.3 8.7 0.00 0.00 0.00 47 1014.1
20240612202410 87 34 3.5 7.8 0.00 0.00 0.00 47 1014.1
20240612202259 87 348 4.3 7.8 0.00 0.00 0.00 46 1014.1
20240612202206 87 329 4.3 7.8 0.00 0.00 0.00 47 1014.1
20240612202114 87 341 4.3 7.8 0.00 0.00 0.00 47 1014.2
20240612202001 87 355 4.3 7.8 0.00 0.00 0.00 47 1014.2
20240612201913 86 355 3.5 7.0 0.00 0.00 0.00 45 1014.1
20240612201844 86 334 2.6 7.0 0.00 0.00 0.00 45 1014.1
20240612201559 86 345 1.7 7.0 0.00 0.00 0.00 42 1014.1
20240612201505 86 46 1.7 7.0 0.00 0.00 0.00 42 1014.1
20240612201418 86 40 1.7 7.0 0.00 0.00 0.00 41 1014.1
20240612201306 86 160 2.6 7.0 0.00 0.00 0.00 41 1014.2
20240612201213 86 152 3.5 6.1 0.00 0.00 0.00 42 1014.2
20240612201101 86 103 2.6 6.1 0.00 0.00 0.00 43 1014.1
20240612201028 86 35 1.7 5.2 0.00 0.00 0.00 41 1014.2
20240612200914 87 71 1.7 5.2 0.00 0.00 0.00 39 1014.1
20240612200805 87 73 2.6 5.2 0.00 0.00 0.00 41 1014.1
20240612200712 87 33 2.6 5.2 0.00 0.00 0.00 39 1014.2
20240612200559 87 5 2.6 5.2 0.00 0.00 0.00 39 1014.2
20240612200506 87 46 1.7 6.1 0.00 0.00 0.00 39 1014.2
20240612200414 87 63 2.6 7.8 0.00 0.00 0.00 39 1014.2
20240612200350 87 113 2.6 7.8 0.00 0.00 0.00 42 1014.2
20240612200123 87 13 2.6 7.8 0.00 0.00 0.00 44 1014.2
20240612200010 87 5 2.6 7.8 0.00 0.00 0.00 41 1014.2
20240612195915 87 53 2.6 7.8 0.00 0.00 0.00 41 1014.2
20240612195802 87 313 4.3 7.8 0.00 0.00 0.00 41 1014.2
20240612195708 87 94 5.2 7.8 0.00 0.00 0.00 39 1014.2
20240612195559 87 54 6.1 7.8 0.00 0.00 0.00 41 1014.1
20240612195506 87 47 5.2 7.8 0.00 0.00 0.00 42 1014.2
20240612195414 87 38 4.3 7.8 0.00 0.00 0.00 42 1014.2
20240612195320 87 36 3.5 7.0 0.00 0.00 0.00 42 1014.1
20240612195228 87 26 3.5 7.0 0.00 0.00 0.00 43 1014.1
20240612195115 87 35 2.6 7.0 0.00 0.00 0.00 43 1014.1
20240612195007 87 46 1.7 5.2 0.00 0.00 0.00 41 1014.3
20240612194844 87 173 1.7 5.2 0.00 0.00 0.00 45 1014.2
20240612194558 87 355 1.7 6.1 0.00 0.00 0.00 41 1014.2
20240612194527 87 305 1.7 6.1 0.00 0.00 0.00 45 1014.2
20240612194359 87 284 2.6 6.1 0.00 0.00 0.00 43 1014.3
20240612194307 86 257 2.6 7.8 0.00 0.00 0.00 43 1014.3
20240612194214 86 286 2.6 7.8 0.00 0.00 0.00 43 1014.3
20240612194103 86 280 1.7 7.8 0.00 0.00 0.00 43 1014.3
20240612194031 86 232 2.6 7.8 0.00 0.00 0.00 43 1014.3
20240612193938 86 178 2.6 7.8 0.00 0.00 0.00 42 1014.2
20240612193809 86 213 2.6 7.8 0.00 0.00 0.00 43 1014.3
20240612193717 86 172 2.6 7.8 0.00 0.00 0.00 42 1014.3
20240612193605 86 200 4.3 7.8 0.00 0.00 0.00 45 1014.4
20240612193532 86 181 4.3 7.8 0.00 0.00 0.00 40 1014.4
20240612193418 86 267 3.5 7.8 0.00 0.00 0.00 42 1014.4
20240612193332 86 181 1.7 7.0 0.00 0.00 0.00 43 1014.3
20240612193126 86 188 1.7 7.0 0.00 0.00 0.00 43 1014.4
20240612193012 86 253 1.7 7.0 0.00 0.00 0.00 43 1014.4
20240612192859 86 267 1.7 7.0 0.00 0.00 0.00 43 1014.3
20240612192826 86 300 2.6 7.0 0.00 0.00 0.00 44 1014.4
20240612192734 86 284 3.5 7.0 0.00 0.00 0.00 43 1014.4
20240612192604 85 327 3.5 7.0 0.00 0.00 0.00 45 1014.4
20240612192511 85 304 2.6 6.1 0.00 0.00 0.00 46 1014.4
20240612192418 85 297 2.6 6.1 0.00 0.00 0.00 45 1014.4
20240612192306 85 302 1.7 6.1 0.00 0.00 0.00 44 1014.5
20240612192213 85 310 2.6 6.1 0.00 0.00 0.00 42 1014.6
20240612192100 85 171 3.5 6.1 0.00 0.00 0.00 43 1014.6
20240612192010 85 198 2.6 6.1 0.00 0.00 0.00 42 1014.5
20240612191917 84 216 1.7 6.1 0.00 0.00 0.00 42 1014.4
20240612191848 84 191 1.7 7.8 0.00 0.00 0.00 43 1014.4
20240612191602 84 182 2.6 7.8 0.00 0.00 0.00 44 1014.6
20240612191513 84 116 1.7 7.8 0.00 0.00 0.00 44 1014.6
20240612191401 84 223 3.5 7.8 0.00 0.00 0.00 44 1014.6
20240612191330 84 177 3.5 7.8 0.00 0.00 0.00 43 1014.6
20240612191217 84 192 4.3 7.8 0.00 0.00 0.00 42 1014.7
20240612191104 84 180 4.3 7.8 0.00 0.00 0.00 42 1014.6
20240612191011 84 178 4.3 7.8 0.00 0.00 0.00 43 1014.6
20240612190902 84 217 2.6 6.1 0.00 0.00 0.00 44 1014.6
20240612190829 84 214 2.6 6.1 0.00 0.00 0.00 41 1014.7
20240612190717 84 249 3.5 6.1 0.00 0.00 0.00 41 1014.6
20240612190604 84 157 4.3 6.1 0.00 0.00 0.00 42 1014.6
20240612190511 84 187 3.5 6.1 0.00 0.00 0.00 43 1014.6
20240612190400 85 162 2.6 6.1 0.00 0.00 0.00 46 1014.6
20240612190334 85 152 2.6 6.1 0.00 0.00 0.00 46 1014.6
20240612190107 85 179 1.7 4.3 0.00 0.00 0.00 40 1014.7
20240612190014 85 195 1.7 4.3 0.00 0.00 0.00 42 1014.6
20240612185921 85 154 0.9 4.3 0.00 0.00 0.00 42 1014.6
20240612185808 85 75 1.7 4.3 0.00 0.00 0.00 42 1014.5
20240612185719 85 86 2.6 4.3 0.00 0.00 0.00 43 1014.6
20240612185606 85 90 2.6 4.3 0.00 0.00 0.00 42 1014.6
20240612185514 85 9 1.7 4.3 0.00 0.00 0.00 43 1014.6
20240612185421 85 201 0.9 4.3 0.00 0.00 0.00 42 1014.7
20240612185306 85 161 0.0 4.3 0.00 0.00 0.00 42 1014.7
20240612185214 85 59 0.0 4.3 0.00 0.00 0.00 45 1014.7
20240612185105 85 134 0.9 4.3 0.00 0.00 0.00 45 1014.7
20240612185012 85 120 0.9 5.2 0.00 0.00 0.00 43 1014.6
20240612184919 85 210 1.7 5.2 0.00 0.00 0.00 44 1014.7
20240612184851 85 184 1.7 5.2 0.00 0.00 0.00 44 1014.7
20240612184609 85 74 0.9 5.2 0.00 0.00 0.00 41 1014.7
20240612184458 85 63 0.9 5.2 0.00 0.00 0.00 43 1014.7
20240612184427 85 63 1.7 5.2 0.00 0.00 0.00 43 1014.7
20240612184313 85 49 2.6 5.2 0.00 0.00 0.00 47 1014.7
20240612184159 85 28 2.6 5.2 0.00 0.00 0.00 46 1014.7
20240612184107 85 29 1.7 5.2 0.00 0.00 0.00 47 1014.7
20240612184018 85 348 0.9 5.2 0.00 0.00 0.00 44 1014.8
20240612183905 85 109 0.9 5.2 0.00 0.00 0.00 42 1014.8
20240612183813 85 188 1.7 5.2 0.00 0.00 0.00 46 1014.7
20240612183719 85 67 2.6 6.1 0.00 0.00 0.00 44 1014.8
20240612183605 85 49 2.6 6.1 0.00 0.00 0.00 45 1014.8
20240612183532 84 64 2.6 6.1 0.00 0.00 0.00 44 1014.8
20240612183403 84 77 3.5 6.1 0.00 0.00 0.00 44 1014.8
20240612183334 84 42 2.6 6.1 0.00 0.00 0.00 44 1014.8
20240612183106 84 39 3.5 6.1 0.00 0.00 0.00 44 1014.8
20240612183015 84 46 2.6 6.1 0.00 0.00 0.00 44 1014.9
20240612182901 84 28 0.9 5.2 0.00 0.00 0.00 44 1014.8
20240612182814 84 339 1.7 5.2 0.00 0.00 0.00 43 1014.8
20240612182702 84 36 2.6 5.2 0.00 0.00 0.00 44 1014.8
20240612182609 84 5 2.6 5.2 0.00 0.00 0.00 44 1014.9
20240612182516 84 11 1.7 5.2 0.00 0.00 0.00 46 1014.9
20240612182403 84 12 1.7 5.2 0.00 0.00 0.00 46 1014.9
20240612182314 84 65 1.7 5.2 0.00 0.00 0.00 46 1015.0
20240612182221 84 70 2.6 5.2 0.00 0.00 0.00 45 1014.9
20240612182148 84 103 3.5 5.2 0.00 0.00 0.00 46 1014.9
20240612182054 84 32 3.5 5.2 0.00 0.00 0.00 47 1014.9
20240612182002 84 319 3.5 5.2 0.00 0.00 0.00 45 1014.9
20240612181911 84 5 3.5 6.1 0.00 0.00 0.00 44 1014.9
20240612181607 84 61 2.6 7.8 0.00 0.00 0.00 45 1014.8
20240612181514 84 67 1.7 7.8 0.00 0.00 0.00 45 1014.9
20240612181402 84 37 2.6 7.8 0.00 0.00 0.00 46 1014.9
20240612181310 84 18 3.5 7.8 0.00 0.00 0.00 46 1014.9
20240612181217 84 25 4.3 7.8 0.00 0.00 0.00 46 1014.9
20240612181103 84 47 5.2 7.8 0.00 0.00 0.00 46 1014.9
20240612181014 83 41 5.2 7.8 0.00 0.00 0.00 45 1014.9
20240612180901 83 38 3.5 7.8 0.00 0.00 0.00 47 1014.9
20240612180808 83 26 2.6 4.3 0.00 0.00 0.00 46 1014.9
20240612180716 83 28 1.7 4.3 0.00 0.00 0.00 49 1015.0
20240612180604 83 159 1.7 4.3 0.00 0.00 0.00 45 1014.9
20240612180517 83 76 1.7 4.3 0.00 0.00 0.00 46 1015.0
20240612180424 83 37 1.7 4.3 0.00 0.00 0.00 45 1015.0
20240612180355 83 37 1.7 9.6 0.00 0.00 0.00 45 1015.0
20240612180108 83 42 2.6 9.6 0.00 0.00 0.00 44 1015.0
20240612180015 84 82 1.7 9.6 0.00 0.00 0.00 45 1015.0
20240612175906 84 45 0.9 9.6 0.00 0.00 0.00 49 1015.0
20240612175814 84 123 0.0 9.6 0.00 0.00 0.00 46 1015.0
20240612175659 84 290 0.9 9.6 0.00 0.00 0.00 45 1015.1
20240612175606 84 317 1.7 9.6 0.00 0.00 0.00 44 1015.0
20240612175534 84 317 4.3 9.6 0.00 0.00 0.00 44 1015.1
20240612175420 84 323 5.2 10.4 0.00 0.00 0.00 45 1015.0
20240612175310 85 332 4.3 10.4 0.00 0.00 0.00 43 1015.0
20240612175217 85 326 2.6 10.4 0.00 0.00 0.00 45 1015.1
20240612175103 85 290 2.6 10.4 0.00 0.00 0.00 46 1015.0
20240612175030 85 35 5.2 10.4 0.00 0.00 0.00 49 1015.1
20240612174916 85 333 6.1 10.4 0.00 0.00 0.00 47 1015.0
20240612174849 85 5 6.1 10.4 0.00 0.00 0.00 46 1015.0
20240612174601 85 25 5.2 10.4 0.00 0.00 0.00 46 1015.0
20240612174510 85 46 6.1 8.7 0.00 0.00 0.00 47 1015.0
20240612174417 85 28 6.1 8.7 0.00 0.00 0.00 47 1015.1
20240612174304 85 13 4.3 7.8 0.00 0.00 0.00 46 1015.1
20240612174211 85 346 1.7 7.8 0.00 0.00 0.00 48 1015.1
20240612174103 85 343 0.9 4.3 0.00 0.00 0.00 45 1015.1
20240612174012 85 115 0.0 5.2 0.00 0.00 0.00 46 1015.1
20240612173900 85 129 0.9 7.0 0.00 0.00 0.00 45 1015.2
20240612173827 85 36 0.9 8.7 0.00 0.00 0.00 47 1015.2
20240612173713 85 11 0.0 8.7 0.00 0.00 0.00 46 1015.2
20240612173604 85 40 0.9 8.7 0.00 0.00 0.00 46 1015.2
20240612173511 85 16 1.7 8.7 0.00 0.00 0.00 43 1015.2
20240612173417 85 5 2.6 8.7 0.00 0.00 0.00 43 1015.2
20240612173347 85 290 3.5 8.7 0.00 0.00 0.00 43 1015.2
20240612173059 85 40 4.3 8.7 0.00 0.00 0.00 45 1015.3
20240612173010 85 48 5.2 10.4 0.00 0.00 0.00 45 1015.3
20240612172916 85 28 5.2 10.4 0.00 0.00 0.00 46 1015.3
20240612172803 85 19 6.1 10.4 0.00 0.00 0.00 46 1015.3
20240612172731 85 15 5.2 10.4 0.00 0.00 0.00 46 1015.3
20240612172559 85 50 4.3 10.4 0.00 0.00 0.00 46 1015.4
20240612172505 85 74 2.6 10.4 0.00 0.00 0.00 47 1015.3
20240612172437 84 63 1.7 10.4 0.00 0.00 0.00 46 1015.3
20240612172305 84 57 4.3 10.4 0.00 0.00 0.00 47 1015.3
20240612172212 84 9 5.2 10.4 0.00 0.00 0.00 47 1015.3
20240612172100 84 5 3.5 9.6 0.00 0.00 0.00 48 1015.3
20240612172007 84 32 2.6 8.7 0.00 0.00 0.00 47 1015.3
20240612171914 84 55 2.6 8.7 0.00 0.00 0.00 48 1015.3
20240612171849 84 66 2.6 8.7 0.00 0.00 0.00 47 1015.3
20240612171602 84 46 2.6 8.7 0.00 0.00 0.00 46 1015.3
20240612171529 84 71 2.6 8.7 0.00 0.00 0.00 48 1015.4
20240612171417 84 5 4.3 8.7 0.00 0.00 0.00 48 1015.3
20240612171308 84 36 4.3 8.7 0.00 0.00 0.00 48 1015.4
20240612171216 84 38 4.3 8.7 0.00 0.00 0.00 47 1015.4
20240612171104 84 22 4.3 7.8 0.00 0.00 0.00 47 1015.4
20240612171011 84 44 4.3 7.8 0.00 0.00 0.00 48 1015.4
20240612170858 84 50 3.5 6.1 0.00 0.00 0.00 46 1015.4
20240612170806 84 51 3.5 7.0 0.00 0.00 0.00 47 1015.4
20240612170737 84 22 3.5 7.0 0.00 0.00 0.00 47 1015.4
20240612170604 84 42 1.7 5.2 0.00 0.00 0.00 46 1015.4
20240612170512 84 21 1.7 7.0 0.00 0.00 0.00 47 1015.5
20240612170400 84 355 1.7 7.0 0.00 0.00 0.00 47 1015.4
20240612170334 84 355 1.7 7.0 0.00 0.00 0.00 46 1015.4
20240612170108 84 46 2.6 7.8 0.00 0.00 0.00 47 1015.4
20240612170014 84 30 1.7 7.8 0.00 0.00 0.00 46 1015.5
20240612165901 84 11 2.6 7.8 0.00 0.00 0.00 47 1015.5
20240612165809 84 22 3.5 7.8 0.00 0.00 0.00 47 1015.5
20240612165716 84 34 4.3 7.8 0.00 0.00 0.00 48 1015.5
20240612165608 83 25 4.3 7.8 0.00 0.00 0.00 48 1015.5
20240612165537 83 17 2.6 7.8 0.00 0.00 0.00 49 1015.5
20240612165403 83 23 1.7 5.2 0.00 0.00 0.00 48 1015.6
20240612165330 83 44 1.7 5.2 0.00 0.00 0.00 47 1015.5
20240612165216 83 42 1.7 5.2 0.00 0.00 0.00 47 1015.5
20240612165104 83 5 1.7 5.2 0.00 0.00 0.00 47 1015.5
20240612165015 84 317 2.6 5.2 0.00 0.00 0.00 48 1015.5
20240612164903 84 314 3.5 5.2 0.00 0.00 0.00 49 1015.4
20240612164833 84 350 3.5 5.2 0.00 0.00 0.00 49 1015.4
20240612164607 84 22 2.6 5.2 0.00 0.00 0.00 49 1015.4
20240612164459 84 20 2.6 5.2 0.00 0.00 0.00 49 1015.4
20240612164406 84 36 3.5 7.0 0.00 0.00 0.00 48 1015.4
20240612164315 83 24 3.5 7.0 0.00 0.00 0.00 48 1015.4
20240612164201 83 26 2.6 7.0 0.00 0.00 0.00 47 1015.4
20240612164109 83 51 2.6 7.0 0.00 0.00 0.00 47 1015.4
20240612164017 83 89 2.6 7.0 0.00 0.00 0.00 47 1015.3
20240612163908 83 13 3.5 7.0 0.00 0.00 0.00 48 1015.4
20240612163835 83 54 3.5 7.0 0.00 0.00 0.00 48 1015.4
20240612163702 83 37 4.3 8.7 0.00 0.00 0.00 49 1015.4
20240612163609 83 22 5.2 8.7 0.00 0.00 0.00 48 1015.4
20240612163536 83 23 5.2 8.7 0.00 0.00 0.00 47 1015.3
20240612163402 83 48 4.3 8.7 0.00 0.00 0.00 47 1015.4
20240612163337 83 24 4.3 8.7 0.00 0.00 0.00 48 1015.4
20240612163110 83 5 4.3 8.7 0.00 0.00 0.00 50 1015.4
20240612163016 83 26 5.2 8.7 0.00 0.00 0.00 49 1015.4
20240612162905 83 13 5.2 8.7 0.00 0.00 0.00 50 1015.4
20240612162813 83 13 3.5 8.7 0.00 0.00 0.00 50 1015.5
20240612162703 83 38 2.6 6.1 0.00 0.00 0.00 48 1015.4
20240612162631 83 355 3.5 6.1 0.00 0.00 0.00 49 1015.4
20240612162518 83 11 3.5 6.1 0.00 0.00 0.00 49 1015.4
20240612162405 82 355 1.7 4.3 0.00 0.00 0.00 52 1015.4
20240612162311 82 16 0.9 4.3 0.00 0.00 0.00 51 1015.4
20240612162203 82 350 1.7 7.0 0.00 0.00 0.00 50 1015.4
20240612162109 82 9 1.7 7.0 0.00 0.00 0.00 49 1015.5
20240612162017 82 44 2.6 7.0 0.00 0.00 0.00 48 1015.4
20240612161904 82 5 2.6 7.0 0.00 0.00 0.00 49 1015.4
20240612161835 82 350 2.6 7.0 0.00 0.00 0.00 49 1015.4
20240612161611 82 351 3.5 9.6 0.00 0.00 0.00 49 1015.5
20240612161458 82 17 3.5 9.6 0.00 0.00 0.00 49 1015.5
20240612161426 82 22 2.6 9.6 0.00 0.00 0.00 49 1015.6
20240612161313 82 56 2.6 9.6 0.00 0.00 0.00 49 1015.5
20240612161201 82 51 2.6 9.6 0.00 0.00 0.00 47 1015.5
20240612161108 82 63 3.5 9.6 0.00 0.00 0.00 47 1015.5
20240612160959 82 77 3.5 9.6 0.00 0.00 0.00 49 1015.5
20240612160906 82 34 5.2 9.6 0.00 0.00 0.00 48 1015.5
20240612160813 82 28 5.2 9.6 0.00 0.00 0.00 49 1015.5
20240612160701 82 24 3.5 7.0 0.00 0.00 0.00 50 1015.5
20240612160627 82 38 3.5 6.1 0.00 0.00 0.00 51 1015.6
20240612160513 82 40 3.5 6.1 0.00 0.00 0.00 52 1015.6
20240612160424 82 39 3.5 6.1 0.00 0.00 0.00 52 1015.6
20240612160351 82 5 3.5 5.2 0.00 0.00 0.00 53 1015.6
20240612160104 82 36 2.6 5.2 0.00 0.00 0.00 54 1015.5
20240612160029 82 5 2.6 5.2 0.00 0.00 0.00 54 1015.5
20240612155916 82 350 2.6 5.2 0.00 0.00 0.00 54 1015.5
20240612155806 82 9 2.6 5.2 0.00 0.00 0.00 55 1015.5
20240612155713 82 17 2.6 5.2 0.00 0.00 0.00 54 1015.5
20240612155620 82 32 2.6 4.3 0.00 0.00 0.00 55 1015.5
20240612155505 81 34 1.7 4.3 0.00 0.00 0.00 54 1015.5
20240612155413 81 39 0.9 3.5 0.00 0.00 0.00 53 1015.5
20240612155259 81 306 0.9 2.6 0.00 0.00 0.00 52 1015.5
20240612155211 81 250 0.9 3.5 0.00 0.00 0.00 53 1015.4
20240612155116 82 268 1.7 3.5 0.00 0.00 0.00 50 1015.5
20240612155005 82 248 1.7 3.5 0.00 0.00 0.00 51 1015.4
20240612154913 82 192 0.9 4.3 0.00 0.00 0.00 53 1015.6
20240612154848 82 9 0.9 4.3 0.00 0.00 0.00 53 1015.6
20240612154600 82 333 0.9 5.2 0.00 0.00 0.00 53 1015.5
20240612154529 82 355 1.7 5.2 0.00 0.00 0.00 53 1015.6
20240612154414 82 355 1.7 5.2 0.00 0.00 0.00 53 1015.5
20240612154301 82 26 1.7 5.2 0.00 0.00 0.00 52 1015.5
20240612154209 81 134 2.6 5.2 0.00 0.00 0.00 53 1015.6
20240612154120 81 54 2.6 5.2 0.00 0.00 0.00 53 1015.5
20240612154005 81 42 2.6 5.2 0.00 0.00 0.00 53 1015.6
20240612153913 81 42 2.6 5.2 0.00 0.00 0.00 55 1015.5
20240612153759 81 32 1.7 3.5 0.00 0.00 0.00 55 1015.6
20240612153726 81 5 0.9 3.5 0.00 0.00 0.00 54 1015.5
20240612153612 81 57 0.0 4.3 0.00 0.00 0.00 54 1015.5
20240612153519 81 307 0.9 4.3 0.00 0.00 0.00 54 1015.6
20240612153410 81 244 1.7 4.3 0.00 0.00 0.00 54 1015.6
20240612153340 81 244 1.7 4.3 0.00 0.00 0.00 53 1015.6
20240612153131 81 275 1.7 5.2 0.00 0.00 0.00 53 1015.6
20240612153018 81 238 1.7 5.2 0.00 0.00 0.00 52 1015.6
20240612152905 81 224 1.7 5.2 0.00 0.00 0.00 53 1015.6
20240612152816 81 298 1.7 5.2 0.00 0.00 0.00 56 1015.6
20240612152704 81 316 0.9 5.2 0.00 0.00 0.00 55 1015.5
20240612152632 81 360 1.7 5.2 0.00 0.00 0.00 56 1015.6
20240612152539 81 360 2.6 5.2 0.00 0.00 0.00 55 1015.6
20240612152405 81 39 3.5 5.2 0.00 0.00 0.00 56 1015.6
20240612152313 81 51 2.6 5.2 0.00 0.00 0.00 55 1015.6
20240612152205 81 61 0.9 3.5 0.00 0.00 0.00 56 1015.5
20240612152111 81 49 0.9 3.5 0.00 0.00 0.00 56 1015.6
20240612152019 81 99 0.9 3.5 0.00 0.00 0.00 57 1015.6
20240612151925 81 48 1.7 3.5 0.00 0.00 0.00 57 1015.6
20240612151833 81 48 1.7 3.5 0.00 0.00 0.00 57 1015.7
20240612151611 80 55 1.7 3.5 0.00 0.00 0.00 57 1015.7
20240612151458 80 46 0.9 3.5 0.00 0.00 0.00 57 1015.7
20240612151425 80 42 1.7 3.5 0.00 0.00 0.00 58 1015.6
20240612151312 80 310 1.7 3.5 0.00 0.00 0.00 59 1015.7
20240612151200 80 14 2.6 3.5 0.00 0.00 0.00 58 1015.6
20240612151106 80 321 2.6 3.5 0.00 0.00 0.00 57 1015.8
20240612151018 80 20 2.6 3.5 0.00 0.00 0.00 59 1015.6
20240612150903 79 19 2.6 3.5 0.00 0.00 0.00 58 1015.6
20240612150830 79 338 1.7 3.5 0.00 0.00 0.00 60 1015.6
20240612150717 79 355 1.7 3.5 0.00 0.00 0.00 56 1015.6
20240612150625 79 217 0.9 6.1 0.00 0.00 0.00 56 1015.7
20240612150510 79 248 0.0 6.1 0.00 0.00 0.00 57 1015.6
20240612150439 79 23 0.9 6.1 0.00 0.00 0.00 56 1015.7
20240612150351 79 5 0.9 6.1 0.00 0.00 0.00 56 1015.7
20240612150104 80 96 1.7 6.1 0.00 0.00 0.00 56 1015.6
20240612150012 80 110 1.7 6.1 0.00 0.00 0.00 56 1015.6
20240612145859 80 93 2.6 6.1 0.00 0.00 0.00 58 1015.7
20240612145810 80 92 2.6 6.1 0.00 0.00 0.00 57 1015.7
20240612145717 80 106 3.5 6.1 0.00 0.00 0.00 56 1015.6
20240612145603 80 114 1.7 6.1 0.00 0.00 0.00 57 1015.6
20240612145511 80 128 0.9 5.2 0.00 0.00 0.00 56 1015.6
20240612145417 80 136 0.0 5.2 0.00 0.00 0.00 57 1015.6
20240612145306 79 65 0.0 5.2 0.00 0.00 0.00 58 1015.7
20240612145217 79 96 0.0 5.2 0.00 0.00 0.00 57 1015.6
20240612145104 79 96 0.9 5.2 0.00 0.00 0.00 57 1015.6
20240612145011 79 78 1.7 5.2 0.00 0.00 0.00 58 1015.6
20240612144858 79 78 0.9 5.2 0.00 0.00 0.00 58 1015.6
20240612144833 79 79 0.9 5.2 0.00 0.00 0.00 58 1015.6
20240612144605 79 76 0.9 5.2 0.00 0.00 0.00 58 1015.6
20240612144531 79 51 1.7 5.2 0.00 0.00 0.00 56 1015.6
20240612144358 79 111 2.6 5.2 0.00 0.00 0.00 57 1015.6
20240612144325 79 104 2.6 5.2 0.00 0.00 0.00 58 1015.5
20240612144212 79 63 2.6 6.1 0.00 0.00 0.00 58 1015.5
20240612144103 78 95 2.6 6.1 0.00 0.00 0.00 58 1015.5
20240612144011 78 89 1.7 5.2 0.00 0.00 0.00 58 1015.5
20240612143918 78 61 0.9 3.5 0.00 0.00 0.00 58 1015.5
20240612143805 78 57 0.0 3.5 0.00 0.00 0.00 59 1015.5
20240612143713 78 117 0.0 3.5 0.00 0.00 0.00 58 1015.6
20240612143600 78 117 1.7 3.5 0.00 0.00 0.00 58 1015.6
20240612143511 78 117 2.6 3.5 0.00 0.00 0.00 58 1015.6
20240612143418 78 115 2.6 3.5 0.00 0.00 0.00 58 1015.6
20240612143348 78 143 2.6 3.5 0.00 0.00 0.00 57 1015.6
20240612143101 78 94 0.9 3.5 0.00 0.00 0.00 59 1015.5
20240612143012 78 147 0.9 3.5 0.00 0.00 0.00 59 1015.6
20240612142919 78 113 0.0 3.5 0.00 0.00 0.00 58 1015.6
20240612142805 78 113 0.9 3.5 0.00 0.00 0.00 58 1015.5
20240612142712 78 103 1.7 3.5 0.00 0.00 0.00 59 1015.5
20240612142559 78 66 1.7 3.5 0.00 0.00 0.00 61 1015.6
20240612142507 77 32 1.7 3.5 0.00 0.00 0.00 60 1015.6
20240612142413 77 122 0.9 3.5 0.00 0.00 0.00 60 1015.6
20240612142305 77 121 0.0 2.6 0.00 0.00 0.00 61 1015.6
20240612142211 77 42 0.0 3.5 0.00 0.00 0.00 61 1015.7
20240612142059 77 43 0.0 3.5 0.00 0.00 0.00 60 1015.6
20240612142006 77 24 0.9 3.5 0.00 0.00 0.00 63 1015.6
20240612141913 77 24 0.9 3.5 0.00 0.00 0.00 60 1015.6
20240612141848 77 49 0.9 5.2 0.00 0.00 0.00 60 1015.6
20240612141610 77 98 0.9 6.1 0.00 0.00 0.00 59 1015.6
20240612141516 76 173 0.9 6.1 0.00 0.00 0.00 60 1015.6
20240612141423 76 71 0.9 6.1 0.00 0.00 0.00 61 1015.6
20240612141309 76 31 0.9 6.1 0.00 0.00 0.00 60 1015.6
20240612141201 76 79 0.9 6.1 0.00 0.00 0.00 61 1015.6
20240612141129 76 74 1.7 6.1 0.00 0.00 0.00 59 1015.6
20240612141015 76 165 2.6 6.1 0.00 0.00 0.00 60 1015.5
20240612140901 76 126 2.6 6.1 0.00 0.00 0.00 62 1015.6
20240612140809 76 115 1.7 6.1 0.00 0.00 0.00 64 1015.6
20240612140716 76 78 0.0 3.5 0.00 0.00 0.00 63 1015.6
20240612140607 76 61 0.9 3.5 0.00 0.00 0.00 62 1015.5
20240612140515 76 27 0.9 3.5 0.00 0.00 0.00 63 1015.5
20240612140423 75 24 0.9 3.5 0.00 0.00 0.00 64 1015.6
20240612140355 75 18 0.9 3.5 0.00 0.00 0.00 64 1015.6
20240612140107 75 342 0.9 3.5 0.00 0.00 0.00 64 1015.6
20240612135958 75 5 1.7 3.5 0.00 0.00 0.00 65 1015.6
20240612135926 75 5 1.7 3.5 0.00 0.00 0.00 64 1015.5
20240612135812 75 5 1.7 3.5 0.00 0.00 0.00 64 1015.6
20240612135738 75 12 0.9 3.5 0.00 0.00 0.00 64 1015.5
20240612135604 75 71 0.9 3.5 0.00 0.00 0.00 64 1015.5
20240612135511 75 58 0.9 3.5 0.00 0.00 0.00 64 1015.5
20240612135423 74 48 0.9 3.5 0.00 0.00 0.00 63 1015.5
20240612135308 74 42 0.0 3.5 0.00 0.00 0.00 66 1015.6
20240612135217 74 32 0.9 3.5 0.00 0.00 0.00 65 1015.5
20240612135124 74 71 1.7 3.5 0.00 0.00 0.00 65 1015.5
20240612135010 74 35 1.7 3.5 0.00 0.00 0.00 67 1015.5
20240612134938 74 48 1.7 3.5 0.00 0.00 0.00 66 1015.5
20240612134912 74 40 1.7 3.5 0.00 0.00 0.00 66 1015.5
20240612134603 74 32 0.9 2.6 0.00 0.00 0.00 66 1015.4
20240612134512 73 14 0.9 2.6 0.00 0.00 0.00 66 1015.5
20240612134359 73 60 0.9 2.6 0.00 0.00 0.00 64 1015.5
20240612134328 73 98 0.0 2.6 0.00 0.00 0.00 66 1015.5
20240612134213 73 63 0.0 5.2 0.00 0.00 0.00 65 1015.4
20240612134105 73 40 0.9 5.2 0.00 0.00 0.00 65 1015.4
20240612134012 73 77 0.9 5.2 0.00 0.00 0.00 65 1015.4
20240612133901 73 78 0.9 5.2 0.00 0.00 0.00 66 1015.4
20240612133807 73 72 0.9 5.2 0.00 0.00 0.00 66 1015.5
20240612133714 73 91 0.9 5.2 0.00 0.00 0.00 66 1015.5
20240612133605 73 108 0.9 5.2 0.00 0.00 0.00 65 1015.4
20240612133512 72 84 1.7 5.2 0.00 0.00 0.00 66 1015.4
20240612133439 72 74 1.7 4.3 0.00 0.00 0.00 66 1015.4
20240612133349 72 55 1.7 4.3 0.00 0.00 0.00 66 1015.4
20240612133102 72 75 0.9 4.3 0.00 0.00 0.00 66 1015.4
20240612133014 72 53 1.7 4.3 0.00 0.00 0.00 66 1015.4
20240612132900 71 99 1.7 4.3 0.00 0.00 0.00 67 1015.4
20240612132808 71 44 0.9 4.3 0.00 0.00 0.00 70 1015.3
20240612132716 71 62 0.0 3.5 0.00 0.00 0.00 70 1015.3
20240612132603 71 25 0.9 3.5 0.00 0.00 0.00 71 1015.3
20240612132515 71 24 0.9 3.5 0.00 0.00 0.00 71 1015.3
20240612132404 71 34 0.9 3.5 0.00 0.00 0.00 72 1015.3
20240612132311 71 24 0.9 3.5 0.00 0.00 0.00 72 1015.2
20240612132218 71 36 0.9 3.5 0.00 0.00 0.00 71 1015.2
20240612132105 70 42 0.9 3.5 0.00 0.00 0.00 71 1015.3
20240612132012 70 34 0.9 3.5 0.00 0.00 0.00 72 1015.3
20240612131902 70 31 1.7 3.5 0.00 0.00 0.00 72 1015.4
20240612131832 70 30 1.7 3.5 0.00 0.00 0.00 74 1015.3
20240612131605 70 54 0.9 3.5 0.00 0.00 0.00 75 1015.3
20240612131532 70 46 0.9 2.6 0.00 0.00 0.00 75 1015.2
20240612131402 69 33 0.0 2.6 0.00 0.00 0.00 76 1015.3
20240612131310 69 14 0.0 2.6 0.00 0.00 0.00 75 1015.3
20240612131217 69 340 0.9 2.6 0.00 0.00 0.00 76 1015.3
20240612131103 69 341 0.9 2.6 0.00 0.00 0.00 76 1015.3
20240612131030 69 9 0.9 2.6 0.00 0.00 0.00 76 1015.3
20240612130917 69 5 0.9 2.6 0.00 0.00 0.00 75 1015.3
20240612130807 69 5 0.9 2.6 0.00 0.00 0.00 75 1015.2
20240612130715 69 15 0.9 2.6 0.00 0.00 0.00 76 1015.2
20240612130602 69 16 1.7 2.6 0.00 0.00 0.00 76 1015.2
20240612130530 69 355 1.7 2.6 0.00 0.00 0.00 76 1015.2
20240612130418 69 355 1.7 3.5 0.00 0.00 0.00 76 1015.2
20240612130332 68 336 1.7 3.5 0.00 0.00 0.00 77 1015.1
20240612130106 68 336 0.9 3.5 0.00 0.00 0.00 76 1015.2
20240612130012 68 347 0.9 3.5 0.00 0.00 0.00 76 1015.2
20240612125900 68 24 1.7 3.5 0.00 0.00 0.00 76 1015.2
20240612125826 68 15 1.7 3.5 0.00 0.00 0.00 76 1015.2
20240612125712 68 355 1.7 3.5 0.00 0.00 0.00 76 1015.2
20240612125604 68 355 1.7 3.5 0.00 0.00 0.00 76 1015.2
20240612125531 68 5 0.9 3.5 0.00 0.00 0.00 76 1015.1
20240612125359 68 360 0.9 3.5 0.00 0.00 0.00 77 1015.3
20240612125306 68 355 0.9 3.5 0.00 0.00 0.00 77 1015.3
20240612125234 67 360 1.7 3.5 0.00 0.00 0.00 77 1015.2
20240612125100 67 5 1.7 3.5 0.00 0.00 0.00 77 1015.2
20240612125012 67 10 1.7 3.5 0.00 0.00 0.00 77 1015.2
20240612124851 67 5 1.7 3.5 0.00 0.00 0.00 77 1015.2
20240612124604 67 355 1.7 3.5 0.00 0.00 0.00 77 1015.2
20240612124509 67 355 1.7 3.5 0.00 0.00 0.00 77 1015.2
20240612124400 67 12 1.7 3.5 0.00 0.00 0.00 77 1015.2
20240612124308 67 350 0.9 3.5 0.00 0.00 0.00 77 1015.3
20240612124215 67 21 0.9 3.5 0.00 0.00 0.00 77 1015.3
20240612124103 67 11 1.7 3.5 0.00 0.00 0.00 77 1015.2
20240612124010 67 355 1.7 3.5 0.00 0.00 0.00 77 1015.2
20240612123902 67 59 1.7 3.5 0.00 0.00 0.00 78 1015.2
20240612123809 67 18 1.7 3.5 0.00 0.00 0.00 78 1015.2
20240612123717 66 24 2.6 4.3 0.00 0.00 0.00 78 1015.3
20240612123605 66 360 1.7 4.3 0.00 0.00 0.00 77 1015.2
20240612123533 66 348 1.7 4.3 0.00 0.00 0.00 77 1015.3
20240612123500 66 342 1.7 4.3 0.00 0.00 0.00 77 1015.3
20240612123412 66 10 1.7 4.3 0.00 0.00 0.00 77 1015.2
20240612123105 66 355 2.6 4.3 0.00 0.00 0.00 78 1015.2
20240612123012 66 343 2.6 4.3 0.00 0.00 0.00 78 1015.2
20240612122919 66 9 2.6 4.3 0.00 0.00 0.00 79 1015.2
20240612122825 66 11 2.6 4.3 0.00 0.00 0.00 79 1015.2
20240612122713 66 13 2.6 4.3 0.00 0.00 0.00 79 1015.2
20240612122604 65 355 1.7 4.3 0.00 0.00 0.00 80 1015.2
20240612122510 65 360 0.9 4.3 0.00 0.00 0.00 80 1015.1
20240612122417 65 5 1.7 4.3 0.00 0.00 0.00 80 1015.2
20240612122305 65 344 2.6 4.3 0.00 0.00 0.00 81 1015.2
20240612122232 65 360 2.6 4.3 0.00 0.00 0.00 81 1015.2
20240612122103 65 5 2.6 4.3 0.00 0.00 0.00 81 1015.2
20240612122031 65 360 1.7 4.3 0.00 0.00 0.00 81 1015.1
20240612121917 64 340 1.7 3.5 0.00 0.00 0.00 81 1015.2
20240612121846 64 355 1.7 3.5 0.00 0.00 0.00 82 1015.2
20240612121559 64 355 2.6 3.5 0.00 0.00 0.00 82 1015.2
20240612121511 64 5 1.7 3.5 0.00 0.00 0.00 81 1015.2
20240612121418 64 9 1.7 3.5 0.00 0.00 0.00 82 1015.2
20240612121305 64 24 1.7 3.5 0.00 0.00 0.00 82 1015.2
20240612121212 63 11 1.7 3.5 0.00 0.00 0.00 82 1015.3
20240612121100 63 23 1.7 3.5 0.00 0.00 0.00 82 1015.2
20240612121027 63 24 1.7 3.5 0.00 0.00 0.00 82 1015.2
20240612120916 63 40 1.7 3.5 0.00 0.00 0.00 82 1015.2
20240612120805 63 355 2.6 3.5 0.00 0.00 0.00 83 1015.2
20240612120712 63 350 2.6 3.5 0.00 0.00 0.00 83 1015.2
20240612120618 63 5 1.7 3.5 0.00 0.00 0.00 83 1015.2
20240612120505 63 350 1.7 2.6 0.00 0.00 0.00 83 1015.2
20240612120433 63 10 0.9 2.6 0.00 0.00 0.00 83 1015.2
20240612120346 63 355 1.7 2.6 0.00 0.00 0.00 83 1015.3
20240612120059 62 341 1.7 3.5 0.00 0.00 0.00 84 1015.2
20240612120007 62 355 1.7 3.5 0.00 0.00 0.00 83 1015.2
20240612115913 62 355 1.7 3.5 0.00 0.00 0.00 83 1015.1
20240612115804 62 22 1.7 3.5 0.00 0.00 0.00 83 1015.2
20240612115711 62 355 1.7 3.5 0.00 0.00 0.00 83 1015.1
20240612115617 62 360 1.7 3.5 0.00 0.00 0.00 84 1015.1
20240612115504 62 344 1.7 3.5 0.00 0.00 0.00 84 1015.2
20240612115406 62 344 1.7 3.5 0.00 0.00 0.00 84 1015.1
20240612115313 62 5 1.7 3.5 0.00 0.00 0.00 84 1015.1
20240612115204 61 19 2.6 3.5 0.00 0.00 0.00 84 1015.0
20240612115111 61 15 1.7 3.5 0.00 0.00 0.00 84 1015.0
20240612115018 61 15 0.9 3.5 0.00 0.00 0.00 84 1015.0
20240612114925 61 5 1.7 3.5 0.00 0.00 0.00 84 1015.0
20240612114858 61 355 1.7 3.5 0.00 0.00 0.00 84 1015.0
20240612114629 61 19 0.9 3.5 0.00 0.00 0.00 85 1015.0
20240612114458 61 355 0.0 3.5 0.00 0.00 0.00 85 1015.0
20240612114406 61 331 0.0 3.5 0.00 0.00 0.00 85 1014.9
20240612114313 61 346 0.9 3.5 0.00 0.00 0.00 85 1015.0
20240612114220 61 17 0.9 3.5 0.00 0.00 0.00 85 1015.0
20240612114108 61 342 1.7 3.5 0.00 0.00 0.00 85 1015.0
20240612114015 61 347 1.7 3.5 0.00 0.00 0.00 85 1015.1
20240612113907 60 355 1.7 3.5 0.00 0.00 0.00 85 1015.0
20240612113814 60 5 1.7 2.6 0.00 0.00 0.00 85 1015.0
20240612113659 60 343 1.7 2.6 0.00 0.00 0.00 85 1015.0
20240612113627 60 350 0.9 2.6 0.00 0.00 0.00 85 1015.0
20240612113513 60 5 0.9 2.6 0.00 0.00 0.00 85 1015.0
20240612113400 60 13 1.7 2.6 0.00 0.00 0.00 85 1015.1
20240612113335 60 347 1.7 2.6 0.00 0.00 0.00 85 1015.1
20240612113129 60 346 1.7 2.6 0.00 0.00 0.00 85 1014.9
20240612113015 60 355 1.7 2.6 0.00 0.00 0.00 85 1015.0
20240612112904 60 5 0.9 2.6 0.00 0.00 0.00 85 1015.0
20240612112811 60 348 0.9 2.6 0.00 0.00 0.00 85 1015.0
20240612112723 60 5 0.9 2.6 0.00 0.00 0.00 85 1015.0
20240612112608 60 355 0.9 2.6 0.00 0.00 0.00 85 1015.0
20240612112517 60 355 0.9 2.6 0.00 0.00 0.00 85 1015.0
20240612112426 60 321 0.9 2.6 0.00 0.00 0.00 85 1014.9
20240612112333 60 344 1.7 2.6 0.00 0.00 0.00 85 1015.0
20240612112159 60 343 0.9 2.6 0.00 0.00 0.00 85 1014.9
20240612112111 60 338 0.9 2.6 0.00 0.00 0.00 85 1014.9
20240612111958 60 345 0.0 2.6 0.00 0.00 0.00 85 1015.0
20240612111905 60 344 0.0 2.6 0.00 0.00 0.00 85 1014.9
20240612111835 60 339 0.0 2.6 0.00 0.00 0.00 85 1014.9
20240612111629 60 355 0.0 2.6 0.00 0.00 0.00 85 1014.9
20240612111500 60 350 0.9 2.6 0.00 0.00 0.00 85 1014.9
20240612111406 60 355 0.9 2.6 0.00 0.00 0.00 85 1014.8
20240612111333 60 350 0.9 2.6 0.00 0.00 0.00 85 1014.9
20240612111159 60 5 0.9 2.6 0.00 0.00 0.00 85 1014.8
20240612111105 60 5 1.7 2.6 0.00 0.00 0.00 85 1014.9
20240612111012 60 9 1.7 2.6 0.00 0.00 0.00 85 1014.9
20240612110903 59 355 1.7 2.6 0.00 0.00 0.00 85 1014.9
20240612110812 59 5 1.7 2.6 0.00 0.00 0.00 85 1014.9
20240612110700 59 5 1.7 2.6 0.00 0.00 0.00 85 1014.9
20240612110607 59 17 1.7 2.6 0.00 0.00 0.00 85 1014.8
20240612110514 59 5 1.7 2.6 0.00 0.00 0.00 85 1014.8
20240612110440 59 360 0.9 2.6 0.00 0.00 0.00 85 1014.9
20240612110354 59 16 0.9 2.6 0.00 0.00 0.00 85 1014.9
20240612110105 59 16 0.9 2.6 0.00 0.00 0.00 85 1014.9
20240612110012 59 13 0.9 2.6 0.00 0.00 0.00 85 1014.8
20240612105859 59 11 0.9 2.6 0.00 0.00 0.00 85 1014.8
20240612105807 59 5 0.9 2.6 0.00 0.00 0.00 85 1014.8
20240612105658 59 5 0.9 2.6 0.00 0.00 0.00 85 1014.9
20240612105606 59 5 0.0 3.5 0.00 0.00 0.00 85 1014.8
20240612105513 59 355 0.0 3.5 0.00 0.00 0.00 85 1014.9
20240612105359 59 360 0.0 3.5 0.00 0.00 0.00 85 1014.9
20240612105306 59 360 0.0 3.5 0.00 0.00 0.00 85 1014.8
20240612105217 59 338 0.0 3.5 0.00 0.00 0.00 85 1014.8
20240612105105 59 355 0.0 3.5 0.00 0.00 0.00 85 1014.8
20240612105011 59 355 0.9 3.5 0.00 0.00 0.00 85 1014.8
20240612104858 59 355 0.9 4.3 0.00 0.00 0.00 84 1014.9
20240612104832 59 9 0.9 4.3 0.00 0.00 0.00 84 1014.8
20240612104625 59 342 1.7 4.3 0.00 0.00 0.00 84 1014.9
20240612104533 59 355 1.7 4.3 0.00 0.00 0.00 84 1014.9
20240612104359 59 335 0.9 4.3 0.00 0.00 0.00 84 1014.8
20240612104307 59 346 0.9 4.3 0.00 0.00 0.00 84 1014.8
20240612104214 59 355 0.9 4.3 0.00 0.00 0.00 84 1014.8
20240612104121 59 345 0.9 4.3 0.00 0.00 0.00 84 1014.9
20240612104011 59 348 0.9 4.3 0.00 0.00 0.00 84 1014.8
20240612103918 59 345 0.0 2.6 0.00 0.00 0.00 84 1014.9
20240612103806 59 355 0.0 2.6 0.00 0.00 0.00 84 1014.8
20240612103714 59 355 0.9 2.6 0.00 0.00 0.00 84 1014.8
20240612103600 59 360 0.9 2.6 0.00 0.00 0.00 84 1014.8
20240612103509 59 355 0.9 2.6 0.00 0.00 0.00 84 1014.7
20240612103420 59 344 0.9 2.6 0.00 0.00 0.00 83 1014.7
20240612103350 59 355 0.9 2.6 0.00 0.00 0.00 83 1014.7
20240612103104 59 5 0.9 2.6 0.00 0.00 0.00 83 1014.8
20240612103011 59 355 0.9 2.6 0.00 0.00 0.00 83 1014.8
20240612102902 59 355 1.7 2.6 0.00 0.00 0.00 83 1014.7
20240612102810 60 344 1.7 2.6 0.00 0.00 0.00 83 1014.7
20240612102717 60 355 1.7 2.6 0.00 0.00 0.00 83 1014.8
20240612102604 60 355 1.7 2.6 0.00 0.00 0.00 83 1014.8
20240612102512 60 5 1.7 2.6 0.00 0.00 0.00 83 1014.7
20240612102403 60 5 1.7 2.6 0.00 0.00 0.00 83 1014.8
20240612102311 60 360 0.9 2.6 0.00 0.00 0.00 83 1014.7
20240612102217 60 5 0.9 2.6 0.00 0.00 0.00 83 1014.7
20240612102105 60 5 0.9 2.6 0.00 0.00 0.00 83 1014.8
20240612102013 60 360 1.7 2.6 0.00 0.00 0.00 83 1014.7
20240612101921 60 24 0.9 2.6 0.00 0.00 0.00 83 1014.7
20240612101854 60 5 0.9 2.6 0.00 0.00 0.00 83 1014.7
20240612101626 60 17 0.9 2.6 0.00 0.00 0.00 83 1014.6
20240612101533 60 23 1.7 2.6 0.00 0.00 0.00 83 1014.7
20240612101359 60 5 1.7 2.6 0.00 0.00 0.00 83 1014.7
20240612101305 60 9 1.7 2.6 0.00 0.00 0.00 83 1014.7
20240612101213 60 30 0.9 2.6 0.00 0.00 0.00 83 1014.7
20240612101104 60 24 0.0 2.6 0.00 0.00 0.00 83 1014.7
20240612101030 60 11 0.0 2.6 0.00 0.00 0.00 83 1014.7
20240612100917 60 355 0.0 2.6 0.00 0.00 0.00 83 1014.7
20240612100803 60 355 0.0 2.6 0.00 0.00 0.00 83 1014.7
20240612100709 60 360 0.9 2.6 0.00 0.00 0.00 82 1014.7
20240612100600 60 360 0.9 2.6 0.00 0.00 0.00 82 1014.7
20240612100508 60 360 0.9 3.5 0.00 0.00 0.00 82 1014.7
20240612100415 60 350 0.9 4.3 0.00 0.00 0.00 82 1014.7
20240612100346 60 9 0.0 4.3 0.00 0.00 0.00 82 1014.7
20240612100059 60 355 0.9 4.3 0.00 0.00 0.00 82 1014.7
20240612100011 60 355 0.9 4.3 0.00 0.00 0.00 82 1014.7
20240612095858 60 11 0.9 4.3 0.00 0.00 0.00 82 1014.7
20240612095826 60 348 1.7 4.3 0.00 0.00 0.00 82 1014.6
20240612095712 60 349 1.7 4.3 0.00 0.00 0.00 82 1014.7
20240612095620 60 341 2.6 4.3 0.00 0.00 0.00 82 1014.7
20240612095506 60 13 1.7 4.3 0.00 0.00 0.00 82 1014.7
20240612095413 60 360 1.7 3.5 0.00 0.00 0.00 82 1014.6
20240612095300 60 339 1.7 3.5 0.00 0.00 0.00 82 1014.6
20240612095207 60 340 1.7 3.5 0.00 0.00 0.00 82 1014.6
20240612095114 60 336 2.6 3.5 0.00 0.00 0.00 82 1014.5
20240612095003 60 344 1.7 3.5 0.00 0.00 0.00 82 1014.6
20240612094909 60 355 1.7 3.5 0.00 0.00 0.00 82 1014.6
20240612094843 60 11 1.7 3.5 0.00 0.00 0.00 82 1014.6
20240612094616 60 331 1.7 3.5 0.00 0.00 0.00 82 1014.6
20240612094503 60 16 2.6 4.3 0.00 0.00 0.00 82 1014.6
20240612094410 60 5 1.7 4.3 0.00 0.00 0.00 82 1014.6
20240612094301 60 360 1.7 4.3 0.00 0.00 0.00 82 1014.6
20240612094208 60 337 1.7 5.2 0.00 0.00 0.00 82 1014.6
20240612094116 60 355 1.7 5.2 0.00 0.00 0.00 82 1014.6
20240612094004 60 355 2.6 5.2 0.00 0.00 0.00 82 1014.7
20240612093912 60 355 2.6 5.2 0.00 0.00 0.00 82 1014.7
20240612093803 60 355 2.6 5.2 0.00 0.00 0.00 82 1014.6
20240612093709 60 340 2.6 5.2 0.00 0.00 0.00 82 1014.6
20240612093617 60 351 2.6 5.2 0.00 0.00 0.00 82 1014.6
20240612093524 60 341 2.6 5.2 0.00 0.00 0.00 82 1014.7
20240612093450 60 14 2.6 5.2 0.00 0.00 0.00 82 1014.6
20240612093400 60 344 2.6 4.3 0.00 0.00 0.00 82 1014.6
20240612093117 60 355 2.6 4.3 0.00 0.00 0.00 82 1014.6
20240612093003 60 360 2.6 4.3 0.00 0.00 0.00 82 1014.6
20240612092911 60 355 2.6 4.3 0.00 0.00 0.00 82 1014.6
20240612092759 60 355 2.6 4.3 0.00 0.00 0.00 82 1014.5
20240612092726 60 360 3.5 4.3 0.00 0.00 0.00 82 1014.6
20240612092612 60 341 3.5 4.3 0.00 0.00 0.00 82 1014.6
20240612092504 60 355 3.5 4.3 0.00 0.00 0.00 82 1014.5
20240612092430 60 17 2.6 4.3 0.00 0.00 0.00 82 1014.5
20240612092337 60 344 3.5 4.3 0.00 0.00 0.00 82 1014.5
20240612092203 60 334 2.6 4.3 0.00 0.00 0.00 82 1014.5
20240612092111 60 342 2.6 5.2 0.00 0.00 0.00 82 1014.5
20240612091959 60 342 2.6 5.2 0.00 0.00 0.00 82 1014.5
20240612091909 60 347 2.6 5.2 0.00 0.00 0.00 82 1014.5
20240612091839 60 5 3.5 5.2 0.00 0.00 0.00 82 1014.5
20240612091611 60 355 2.6 5.2 0.00 0.00 0.00 82 1014.5
20240612091517 60 336 2.6 5.2 0.00 0.00 0.00 82 1014.6
20240612091408 60 360 2.6 5.2 0.00 0.00 0.00 82 1014.5
20240612091315 60 5 2.6 5.2 0.00 0.00 0.00 82 1014.5
20240612091222 60 360 2.6 4.3 0.00 0.00 0.00 82 1014.5
20240612091108 60 338 2.6 4.3 0.00 0.00 0.00 82 1014.4
20240612091015 60 321 2.6 4.3 0.00 0.00 0.00 82 1014.5
20240612090902 60 355 2.6 4.3 0.00 0.00 0.00 82 1014.5
20240612090813 60 5 2.6 4.3 0.00 0.00 0.00 82 1014.5
20240612090700 60 9 2.6 4.3 0.00 0.00 0.00 82 1014.4
20240612090607 60 339 2.6 4.3 0.00 0.00 0.00 82 1014.4
20240612090515 60 336 1.7 4.3 0.00 0.00 0.00 82 1014.4
20240612090402 60 344 1.7 3.5 0.00 0.00 0.00 82 1014.5
20240612090336 60 355 1.7 3.5 0.00 0.00 0.00 82 1014.5
20240612090111 60 342 1.7 3.5 0.00 0.00 0.00 82 1014.5
20240612085959 60 22 1.7 3.5 0.00 0.00 0.00 82 1014.4
20240612085904 60 350 0.9 3.5 0.00 0.00 0.00 82 1014.5
20240612085812 60 5 1.7 3.5 0.00 0.00 0.00 82 1014.4
20240612085703 60 5 2.6 3.5 0.00 0.00 0.00 82 1014.4
20240612085610 60 355 1.7 3.5 0.00 0.00 0.00 82 1014.4
20240612085538 60 13 1.7 3.5 0.00 0.00 0.00 82 1014.5
20240612085406 60 360 1.7 3.5 0.00 0.00 0.00 82 1014.5
20240612085314 60 342 1.7 3.5 0.00 0.00 0.00 82 1014.5
20240612085200 60 342 1.7 3.5 0.00 0.00 0.00 82 1014.5
20240612085132 60 321 1.7 3.5 0.00 0.00 0.00 82 1014.5
20240612084959 60 336 1.7 3.5 0.00 0.00 0.00 82 1014.5
20240612084905 60 323 1.7 3.5 0.00 0.00 0.00 81 1014.5
20240612084836 60 342 1.7 3.5 0.00 0.00 0.00 81 1014.5
20240612084609 61 331 0.9 2.6 0.00 0.00 0.00 81 1014.6
20240612084520 61 346 0.9 2.6 0.00 0.00 0.00 81 1014.5
20240612084407 61 340 0.9 2.6 0.00 0.00 0.00 81 1014.5
20240612084313 61 329 0.9 2.6 0.00 0.00 0.00 81 1014.5
20240612084159 61 341 0.9 2.6 0.00 0.00 0.00 81 1014.4
20240612084105 61 348 0.9 2.6 0.00 0.00 0.00 81 1014.5
20240612084012 61 355 0.9 2.6 0.00 0.00 0.00 81 1014.5
20240612083923 61 350 1.7 2.6 0.00 0.00 0.00 81 1014.5
20240612083809 61 348 1.7 2.6 0.00 0.00 0.00 81 1014.5
20240612083716 61 355 1.7 2.6 0.00 0.00 0.00 81 1014.5
20240612083603 61 344 1.7 2.6 0.00 0.00 0.00 81 1014.4
20240612083510 61 346 1.7 2.6 0.00 0.00 0.00 81 1014.5
20240612083417 61 349 1.7 2.6 0.00 0.00 0.00 81 1014.4
20240612083350 61 343 1.7 2.6 0.00 0.00 0.00 81 1014.4
20240612083104 61 346 0.0 1.7 0.00 0.00 0.00 81 1014.4
20240612083032 61 5 0.0 0.0 0.00 0.00 0.00 81 1014.5
20240612082858 61 5 0.0 0.0 0.00 0.00 0.00 81 1014.4
20240612082826 61 5 0.0 0.0 0.00 0.00 0.00 81 1014.5
20240612082715 61 5 0.0 0.0 0.00 0.00 0.00 81 1014.4
20240612082602 61 5 0.0 0.0 0.00 0.00 0.00 81 1014.5
20240612082530 61 5 0.0 0.0 0.00 0.00 0.00 81 1014.4
20240612082358 61 5 0.0 0.0 0.00 0.00 0.00 81 1014.4
20240612082306 61 5 0.0 0.9 0.00 0.00 0.00 80 1014.4
20240612082235 61 5 0.0 2.6 0.00 0.00 0.00 80 1014.4
20240612082002 61 15 0.0 2.6 0.00 0.00 0.00 80 1014.4
20240612081910 61 15 0.0 2.6 0.00 0.00 0.00 80 1014.5
20240612081840 61 15 0.0 2.6 0.00 0.00 0.00 80 1014.5
20240612081615 61 15 0.0 2.6 0.00 0.00 0.00 80 1014.4
20240612081506 61 350 0.0 2.6 0.00 0.00 0.00 80 1014.4
20240612081434 61 355 0.9 2.6 0.00 0.00 0.00 80 1014.3
20240612081300 61 5 0.9 2.6 0.00 0.00 0.00 80 1014.4
20240612081208 61 5 0.9 2.6 0.00 0.00 0.00 80 1014.4
20240612081135 61 5 1.7 2.6 0.00 0.00 0.00 80 1014.4
20240612081002 61 342 1.7 2.6 0.00 0.00 0.00 80 1014.2
20240612080930 61 339 1.7 2.6 0.00 0.00 0.00 80 1014.3
20240612080801 61 338 1.7 2.6 0.00 0.00 0.00 80 1014.3
20240612080726 61 348 0.9 2.6 0.00 0.00 0.00 80 1014.3
20240612080633 61 336 0.9 2.6 0.00 0.00 0.00 80 1014.1
20240612080459 61 342 1.7 2.6 0.00 0.00 0.00 80 1014.2
20240612080406 61 355 1.7 2.6 0.00 0.00 0.00 80 1014.2
20240612080334 61 345 1.7 2.6 0.00 0.00 0.00 79 1014.2
20240612080113 62 350 1.7 2.6 0.00 0.00 0.00 79 1014.2
20240612080001 62 344 0.9 2.6 0.00 0.00 0.00 79 1014.2
20240612075908 62 343 0.9 2.6 0.00 0.00 0.00 79 1014.2
20240612075816 62 340 0.9 2.6 0.00 0.00 0.00 79 1014.2
20240612075704 62 342 0.9 2.6 0.00 0.00 0.00 79 1014.2
20240612075616 62 342 0.9 2.6 0.00 0.00 0.00 79 1014.2
20240612075523 62 355 1.7 2.6 0.00 0.00 0.00 79 1014.2
20240612075428 62 355 1.7 2.6 0.00 0.00 0.00 79 1014.2
20240612075316 62 355 0.9 2.6 0.00 0.00 0.00 79 1014.2
20240612075202 62 14 0.9 2.6 0.00 0.00 0.00 79 1014.2
20240612075109 62 345 1.7 2.6 0.00 0.00 0.00 79 1014.2
20240612075001 62 360 1.7 2.6 0.00 0.00 0.00 79 1014.2
20240612074930 62 338 0.9 2.6 0.00 0.00 0.00 79 1014.2
20240612074838 62 346 0.9 2.6 0.00 0.00 0.00 79 1014.2
20240612074611 62 338 0.9 2.6 0.00 0.00 0.00 79 1014.2
20240612074517 62 337 0.9 2.6 0.00 0.00 0.00 79 1014.3
20240612074409 62 349 0.9 2.6 0.00 0.00 0.00 79 1014.2
20240612074316 62 341 0.9 2.6 0.00 0.00 0.00 79 1014.2
20240612074202 62 321 0.9 2.6 0.00 0.00 0.00 79 1014.1
20240612074110 62 355 0.9 2.6 0.00 0.00 0.00 79 1014.2
20240612074017 62 355 0.9 2.6 0.00 0.00 0.00 78 1014.2
20240612073904 62 350 0.9 2.6 0.00 0.00 0.00 78 1014.1
20240612073816 62 350 0.9 2.6 0.00 0.00 0.00 78 1014.1
20240612073703 62 350 0.9 2.6 0.00 0.00 0.00 78 1014.1
20240612073611 62 340 0.9 2.6 0.00 0.00 0.00 78 1014.1
20240612073516 62 338 0.9 2.6 0.00 0.00 0.00 78 1014.1
20240612073423 62 340 0.0 2.6 0.00 0.00 0.00 78 1014.0
20240612073337 62 342 0.0 1.7 0.00 0.00 0.00 78 1014.0
20240612073110 62 9 0.0 1.7 0.00 0.00 0.00 78 1014.1
20240612073038 62 9 0.0 1.7 0.00 0.00 0.00 78 1014.0
20240612072905 62 9 0.0 1.7 0.00 0.00 0.00 78 1014.0
20240612072811 62 9 0.9 1.7 0.00 0.00 0.00 78 1014.1
20240612072658 62 17 0.9 1.7 0.00 0.00 0.00 78 1014.0
20240612072610 62 5 0.9 2.6 0.00 0.00 0.00 77 1014.1
20240612072459 62 355 0.0 2.6 0.00 0.00 0.00 77 1014.1
20240612072406 62 355 0.0 2.6 0.00 0.00 0.00 77 1014.1
20240612072312 62 355 0.0 3.5 0.00 0.00 0.00 77 1014.1
20240612072159 62 355 0.0 3.5 0.00 0.00 0.00 77 1014.2
20240612072106 62 355 0.9 3.5 0.00 0.00 0.00 78 1014.2
20240612072017 62 360 0.9 3.5 0.00 0.00 0.00 78 1014.2
20240612071905 62 360 1.7 3.5 0.00 0.00 0.00 78 1014.2
20240612071836 62 342 1.7 3.5 0.00 0.00 0.00 78 1014.2
20240612071608 62 342 1.7 3.5 0.00 0.00 0.00 78 1014.2
20240612071459 62 5 1.7 3.5 0.00 0.00 0.00 78 1014.3
20240612071408 62 355 2.6 3.5 0.00 0.00 0.00 78 1014.2
20240612071315 63 325 1.7 3.5 0.00 0.00 0.00 78 1014.3
20240612071201 62 333 1.7 3.5 0.00 0.00 0.00 77 1014.2
20240612071108 62 345 1.7 3.5 0.00 0.00 0.00 77 1014.1
20240612070959 63 350 0.9 3.5 0.00 0.00 0.00 77 1014.1
20240612070907 63 347 0.9 3.5 0.00 0.00 0.00 77 1014.2
20240612070814 63 339 1.7 3.5 0.00 0.00 0.00 77 1014.2
20240612070701 63 360 1.7 3.5 0.00 0.00 0.00 77 1014.1
20240612070609 63 5 1.7 3.5 0.00 0.00 0.00 77 1014.2
20240612070516 63 351 0.9 3.5 0.00 0.00 0.00 77 1014.2
20240612070408 63 355 1.7 3.5 0.00 0.00 0.00 77 1014.1
20240612070338 63 331 2.6 3.5 0.00 0.00 0.00 77 1014.1
20240612070111 63 346 1.7 3.5 0.00 0.00 0.00 77 1014.2
20240612065958 63 339 1.7 3.5 0.00 0.00 0.00 77 1014.2
20240612065924 63 342 1.7 3.5 0.00 0.00 0.00 77 1014.1
20240612065816 63 355 1.7 3.5 0.00 0.00 0.00 77 1014.1
20240612065704 63 355 0.9 3.5 0.00 0.00 0.00 77 1014.1
20240612065611 63 360 1.7 3.5 0.00 0.00 0.00 77 1014.1
20240612065517 63 355 1.7 3.5 0.00 0.00 0.00 77 1014.1
20240612065405 63 5 1.7 3.5 0.00 0.00 0.00 77 1014.1
20240612065316 63 351 1.7 3.5 0.00 0.00 0.00 77 1014.1
20240612065224 63 355 1.7 3.5 0.00 0.00 0.00 77 1014.0
20240612065108 63 11 1.7 3.5 0.00 0.00 0.00 77 1014.2
20240612065015 63 355 1.7 3.5 0.00 0.00 0.00 77 1014.2
20240612064903 63 360 1.7 3.5 0.00 0.00 0.00 77 1014.1
20240612064837 63 355 1.7 3.5 0.00 0.00 0.00 77 1014.1
20240612064611 63 351 1.7 3.5 0.00 0.00 0.00 77 1014.0
20240612064458 63 355 1.7 3.5 0.00 0.00 0.00 76 1014.1
20240612064427 63 360 1.7 3.5 0.00 0.00 0.00 76 1014.0
20240612064313 63 5 1.7 3.5 0.00 0.00 0.00 76 1014.1
20240612064201 63 360 1.7 3.5 0.00 0.00 0.00 76 1014.0
20240612064114 63 355 1.7 3.5 0.00 0.00 0.00 76 1014.1
20240612064020 63 10 2.6 3.5 0.00 0.00 0.00 76 1014.0
20240612063907 63 13 2.6 3.5 0.00 0.00 0.00 76 1014.1
20240612063814 63 5 1.7 3.5 0.00 0.00 0.00 76 1014.1
20240612063722 63 5 0.9 2.6 0.00 0.00 0.00 76 1014.1
20240612063608 63 355 1.7 2.6 0.00 0.00 0.00 76 1014.1
20240612063500 63 331 1.7 2.6 0.00 0.00 0.00 76 1014.1
20240612063428 63 355 0.9 2.6 0.00 0.00 0.00 76 1014.1
20240612063337 63 350 1.7 2.6 0.00 0.00 0.00 76 1014.1
20240612063111 63 344 1.7 2.6 0.00 0.00 0.00 76 1014.1
20240612062958 63 344 1.7 2.6 0.00 0.00 0.00 76 1014.1
20240612062928 63 329 1.7 2.6 0.00 0.00 0.00 75 1014.1
20240612062816 63 344 1.7 2.6 0.00 0.00 0.00 75 1014.2
20240612062724 63 337 1.7 2.6 0.00 0.00 0.00 76 1014.1
20240612062631 63 335 0.9 2.6 0.00 0.00 0.00 75 1014.2
20240612062518 63 339 0.9 2.6 0.00 0.00 0.00 75 1014.2
20240612062403 63 336 0.0 2.6 0.00 0.00 0.00 75 1014.2
20240612062311 63 355 0.0 2.6 0.00 0.00 0.00 75 1014.1
20240612062202 63 355 0.9 2.6 0.00 0.00 0.00 75 1014.1
20240612062130 63 355 0.9 2.6 0.00 0.00 0.00 75 1014.1
20240612062016 63 355 1.7 2.6 0.00 0.00 0.00 75 1014.2
20240612061902 63 5 1.7 2.6 0.00 0.00 0.00 75 1014.1
20240612061837 64 355 1.7 2.6 0.00 0.00 0.00 75 1014.1
20240612061610 64 5 0.9 2.6 0.00 0.00 0.00 74 1014.1
20240612061518 64 355 0.0 2.6 0.00 0.00 0.00 74 1014.1
20240612061403 64 360 0.9 2.6 0.00 0.00 0.00 74 1014.1
20240612061310 64 355 0.9 2.6 0.00 0.00 0.00 74 1014.2
20240612061158 64 339 0.9 2.6 0.00 0.00 0.00 74 1014.1
20240612061111 64 355 0.9 2.6 0.00 0.00 0.00 74 1014.1
20240612060958 64 355 0.0 2.6 0.00 0.00 0.00 74 1014.1
20240612060905 64 340 0.0 2.6 0.00 0.00 0.00 74 1014.1
20240612060812 64 340 0.0 2.6 0.00 0.00 0.00 74 1014.1
20240612060659 64 336 0.9 2.6 0.00 0.00 0.00 74 1014.1
20240612060612 64 355 1.7 2.6 0.00 0.00 0.00 74 1014.1
20240612060517 64 360 1.7 2.6 0.00 0.00 0.00 74 1014.2
20240612060424 64 347 1.7 2.6 0.00 0.00 0.00 74 1014.1
20240612060333 64 329 1.7 2.6 0.00 0.00 0.00 74 1014.1
20240612060127 64 340 0.9 2.6 0.00 0.00 0.00 74 1014.2
20240612060034 64 350 0.9 2.6 0.00 0.00 0.00 74 1014.2
20240612055924 64 350 1.7 2.6 0.00 0.00 0.00 74 1014.2
20240612055810 64 342 1.7 2.6 0.00 0.00 0.00 73 1014.1
20240612055717 64 355 1.7 2.6 0.00 0.00 0.00 74 1014.2
20240612055603 64 335 1.7 2.6 0.00 0.00 0.00 73 1014.3
20240612055532 64 331 0.9 2.6 0.00 0.00 0.00 73 1014.2
20240612055417 64 348 0.9 2.6 0.00 0.00 0.00 73 1014.1
20240612055310 64 330 0.9 2.6 0.00 0.00 0.00 73 1014.2
20240612055217 64 341 0.9 2.6 0.00 0.00 0.00 73 1014.3
20240612055104 64 337 0.9 2.6 0.00 0.00 0.00 73 1014.3
20240612055012 64 355 0.9 2.6 0.00 0.00 0.00 73 1014.2
20240612054938 64 355 0.9 2.6 0.00 0.00 0.00 73 1014.3
20240612054852 64 355 0.9 2.6 0.00 0.00 0.00 73 1014.3
20240612054603 64 355 0.0 2.6 0.00 0.00 0.00 73 1014.3
20240612054529 64 355 0.9 2.6 0.00 0.00 0.00 73 1014.3
20240612054416 64 355 0.9 2.6 0.00 0.00 0.00 73 1014.3
20240612054302 64 349 1.7 2.6 0.00 0.00 0.00 73 1014.3
20240612054231 64 345 1.7 2.6 0.00 0.00 0.00 73 1014.3
20240612054101 64 348 1.7 2.6 0.00 0.00 0.00 73 1014.3
20240612054008 64 338 1.7 2.6 0.00 0.00 0.00 73 1014.3
20240612053916 64 355 0.9 3.5 0.00 0.00 0.00 72 1014.2
20240612053805 64 335 0.9 3.5 0.00 0.00 0.00 73 1014.3
20240612053714 64 346 0.9 3.5 0.00 0.00 0.00 72 1014.3
20240612053601 64 5 1.7 3.5 0.00 0.00 0.00 72 1014.3
20240612053512 64 355 1.7 3.5 0.00 0.00 0.00 72 1014.3
20240612053440 64 9 1.7 3.5 0.00 0.00 0.00 72 1014.3
20240612053411 64 355 1.7 3.5 0.00 0.00 0.00 72 1014.3
20240612053104 64 355 1.7 3.5 0.00 0.00 0.00 72 1014.3
20240612053010 64 5 1.7 3.5 0.00 0.00 0.00 72 1014.2
20240612052902 64 11 1.7 4.3 0.00 0.00 0.00 72 1014.2
20240612052830 64 9 1.7 4.3 0.00 0.00 0.00 72 1014.2
20240612052716 64 9 1.7 4.3 0.00 0.00 0.00 72 1014.1
20240612052602 64 24 1.7 4.3 0.00 0.00 0.00 72 1014.2
20240612052509 64 24 1.7 4.3 0.00 0.00 0.00 72 1014.2
20240612052400 64 24 1.7 4.3 0.00 0.00 0.00 72 1014.1
20240612052307 64 26 1.7 4.3 0.00 0.00 0.00 72 1014.2
20240612052212 64 5 1.7 4.3 0.00 0.00 0.00 72 1014.1